Observation data for Wall on 04/22/2019      Previous  Date  Next       Current Mesonet Observations  Soil Data  Daily Summary Page  Observations in Plain Language
KWA1 220500Z 15007KT 22/15 A2995 RMK A01 T02160147  RH  065%=      5-min Rain = 0
KWA1 220501Z 15007KT 22/15 A2995 RMK A01 T02170146  RH  064%=      5-min Rain = 0
KWA1 220502Z 15007KT 22/15 A2995 RMK A01 T02170146  RH  064%=      5-min Rain = 0
KWA1 220503Z 15006KT 22/15 A2995 RMK A01 T02170147  RH  065%=      5-min Rain = 0
KWA1 220504Z 15006KT 22/15 A2995 RMK A01 T02170146  RH  064%=      5-min Rain = 0
KWA1 220505Z 15007KT 22/15 A2995 RMK A01 T02160147  RH  065%=      5-min Rain = 0
KWA1 220506Z 15006KT 22/15 A2995 RMK A01 T02160146  RH  064%=      5-min Rain = 0
KWA1 220507Z 15007KT 22/15 A2995 RMK A01 T02150145  RH  064%=      5-min Rain = 0
KWA1 220508Z 15008KT 22/15 A2995 RMK A01 T02150145  RH  065%=      5-min Rain = 0
KWA1 220509Z 15007KT 22/15 A2995 RMK A01 T02150146  RH  065%=      5-min Rain = 0
KWA1 220510Z 15006KT 21/15 A2995 RMK A01 T02140145  RH  065%=      5-min Rain = 0
KWA1 220511Z 15007KT 21/15 A2995 RMK A01 T02140145  RH  065%=      5-min Rain = 0
KWA1 220512Z 15007KT 21/15 A2995 RMK A01 T02140145  RH  065%=      5-min Rain = 0
KWA1 220513Z 15008KT 21/15 A2995 RMK A01 T02140145  RH  065%=      5-min Rain = 0
KWA1 220514Z 15008KT 21/14 A2995 RMK A01 T02130144  RH  065%=      5-min Rain = 0
KWA1 220515Z 15008KT 21/15 A2995 RMK A01 T02130145  RH  065%=      5-min Rain = 0
KWA1 220516Z 15009KT 21/14 A2995 RMK A01 T02130144  RH  065%=      5-min Rain = 0
KWA1 220517Z 15008KT 21/15 A2995 RMK A01 T02130146  RH  066%=      5-min Rain = 0
KWA1 220518Z 15007KT 21/15 A2995 RMK A01 T02130145  RH  065%=      5-min Rain = 0
KWA1 220519Z 15008KT 21/15 A2995 RMK A01 T02130145  RH  065%=      5-min Rain = 0
KWA1 220520Z 15009KT 21/15 A2995 RMK A01 T02130147  RH  066%=      5-min Rain = 0
KWA1 220521Z 16007KT 21/15 A2995 RMK A01 T02140147  RH  065%=      5-min Rain = 0
KWA1 220522Z 16009KT 21/15 A2995 RMK A01 T02140146  RH  065%=      5-min Rain = 0
KWA1 220523Z 16009KT 21/15 A2995 RMK A01 T02140147  RH  066%=      5-min Rain = 0
KWA1 220524Z 16011KT 21/15 A2995 RMK A01 T02140147  RH  066%=      5-min Rain = 0
KWA1 220525Z 15011KT 22/15 A2995 RMK A01 T02150149  RH  066%=      5-min Rain = 0
KWA1 220526Z 15010KT 22/15 A2995 RMK A01 T02160148  RH  065%=      5-min Rain = 0
KWA1 220527Z 16011KT 22/15 A2995 RMK A01 T02150148  RH  065%=      5-min Rain = 0
KWA1 220528Z 15012KT 22/15 A2995 RMK A01 T02150149  RH  066%=      5-min Rain = 0
KWA1 220529Z 16012KT 22/15 A2995 RMK A01 T02150150  RH  066%=      5-min Rain = 0
KWA1 220530Z 16010KT 22/15 A2995 RMK A01 T02150150  RH  067%=      5-min Rain = 0
KWA1 220531Z 16009KT 22/15 A2995 RMK A01 T02150150  RH  066%=      5-min Rain = 0
KWA1 220532Z 16009KT 21/15 A2995 RMK A01 T02140149  RH  066%=      5-min Rain = 0
KWA1 220533Z 16010KT 21/15 A2995 RMK A01 T02130151  RH  067%=      5-min Rain = 0
KWA1 220534Z 15009KT 21/15 A2995 RMK A01 T02130150  RH  067%=      5-min Rain = 0
KWA1 220535Z 16010KT 21/15 A2995 RMK A01 T02140150  RH  067%=      5-min Rain = 0
KWA1 220536Z 15012KT 21/15 A2994 RMK A01 T02140152  RH  068%=      5-min Rain = 0
KWA1 220537Z 15011KT 21/15 A2994 RMK A01 T02130153  RH  068%=      5-min Rain = 0
KWA1 220538Z 15010KT 21/15 A2994 RMK A01 T02140152  RH  068%=      5-min Rain = 0
KWA1 220539Z 15010KT 21/15 A2994 RMK A01 T02140153  RH  068%=      5-min Rain = 0
KWA1 220540Z 15009KT 21/15 A2994 RMK A01 T02130152  RH  068%=      5-min Rain = 0
KWA1 220541Z 15008KT 21/15 A2994 RMK A01 T02120152  RH  068%=      5-min Rain = 0
KWA1 220542Z 15010KT 21/15 A2994 RMK A01 T02120152  RH  069%=      5-min Rain = 0
KWA1 220543Z 15010KT 21/15 A2994 RMK A01 T02120154  RH  069%=      5-min Rain = 0
KWA1 220544Z 15010KT 21/15 A2995 RMK A01 T02120154  RH  070%=      5-min Rain = 0
KWA1 220545Z 15010KT 21/15 A2995 RMK A01 T02120154  RH  070%=      5-min Rain = 0
KWA1 220546Z 15010KT 21/15 A2995 RMK A01 T02120154  RH  070%=      5-min Rain = 0
KWA1 220547Z 15010KT 21/16 A2995 RMK A01 T02120155  RH  070%=      5-min Rain = 0
KWA1 220548Z 15010KT 21/16 A2994 RMK A01 T02110155  RH  070%=      5-min Rain = 0
KWA1 220549Z 15011KT 21/16 A2994 RMK A01 T02110156  RH  071%=      5-min Rain = 0
KWA1 220550Z 15012KT 21/16 A2994 RMK A01 T02120158  RH  071%=      5-min Rain = 0
KWA1 220551Z 15011KT 21/16 A2994 RMK A01 T02120158  RH  071%=      5-min Rain = 0
KWA1 220552Z 15011KT 21/16 A2994 RMK A01 T02130158  RH  071%=      5-min Rain = 0
KWA1 220553Z 15011KT 21/16 A2994 RMK A01 T02120158  RH  071%=      5-min Rain = 0
KWA1 220554Z 15010KT 21/16 A2994 RMK A01 T02130158  RH  071%=      5-min Rain = 0
KWA1 220555Z 15009KT 21/16 A2994 RMK A01 T02120157  RH  071%=      5-min Rain = 0
KWA1 220556Z 14008KT 21/16 A2994 RMK A01 T02120157  RH  071%=      5-min Rain = 0
KWA1 220557Z 13008KT 21/16 A2994 RMK A01 T02110155  RH  070%=      5-min Rain = 0
KWA1 220558Z 13009KT 21/15 A2994 RMK A01 T02110154  RH  070%=      5-min Rain = 0
KWA1 220559Z 13008KT 21/15 A2994 RMK A01 T02100151  RH  069%=      5-min Rain = 0
KWA1 220600Z 13009KT 21/15 A2994 RMK A01 T02090150  RH  069%=      5-min Rain = 0
KWA1 220601Z 13009KT 21/15 A2994 RMK A01 T02080150  RH  069%=      5-min Rain = 0
KWA1 220602Z 13008KT 21/15 A2994 RMK A01 T02080149  RH  069%=      5-min Rain = 0
KWA1 220603Z 13008KT 21/15 A2994 RMK A01 T02080149  RH  069%=      5-min Rain = 0
KWA1 220604Z 13008KT 21/15 A2994 RMK A01 T02070149  RH  069%=      5-min Rain = 0
KWA1 220605Z 13009KT 21/15 A2994 RMK A01 T02070149  RH  069%=      5-min Rain = 0
KWA1 220606Z 13009KT 21/15 A2994 RMK A01 T02070149  RH  069%=      5-min Rain = 0
KWA1 220607Z 13009KT 21/15 A2994 RMK A01 T02070149  RH  069%=      5-min Rain = 0
KWA1 220608Z 13009KT 21/15 A2994 RMK A01 T02060149  RH  070%=      5-min Rain = 0
KWA1 220609Z 13010KT 21/15 A2994 RMK A01 T02060149  RH  070%=      5-min Rain = 0
KWA1 220610Z 14010KT 21/15 A2994 RMK A01 T02060151  RH  070%=      5-min Rain = 0
KWA1 220611Z 14009KT 21/15 A2994 RMK A01 T02060151  RH  070%=      5-min Rain = 0
KWA1 220612Z 14009KT 21/15 A2994 RMK A01 T02060150  RH  070%=      5-min Rain = 0
KWA1 220613Z 14010KT 21/15 A2994 RMK A01 T02060151  RH  071%=      5-min Rain = 0
KWA1 220614Z 14011KT 21/15 A2994 RMK A01 T02060152  RH  071%=      5-min Rain = 0
KWA1 220615Z 14011KT 21/15 A2994 RMK A01 T02070153  RH  071%=      5-min Rain = 0
KWA1 220616Z 14011KT 21/15 A2994 RMK A01 T02060153  RH  071%=      5-min Rain = 0
KWA1 220617Z 14010KT 21/15 A2994 RMK A01 T02070154  RH  072%=      5-min Rain = 0
KWA1 220618Z 14011KT 21/15 A2994 RMK A01 T02060153  RH  071%=      5-min Rain = 0
KWA1 220619Z 14010KT 21/15 A2994 RMK A01 T02070153  RH  071%=      5-min Rain = 0
KWA1 220620Z 14010KT 21/15 A2994 RMK A01 T02070154  RH  072%=      5-min Rain = 0
KWA1 220621Z 14010KT 21/15 A2994 RMK A01 T02060154  RH  072%=      5-min Rain = 0
KWA1 220622Z 14011KT 21/16 A2994 RMK A01 T02060155  RH  072%=      5-min Rain = 0
KWA1 220623Z 14010KT 21/15 A2994 RMK A01 T02060154  RH  072%=      5-min Rain = 0
KWA1 220624Z 14010KT 21/15 A2994 RMK A01 T02060154  RH  072%=      5-min Rain = 0
KWA1 220625Z 14011KT 21/16 A2994 RMK A01 T02060155  RH  072%=      5-min Rain = 0
KWA1 220626Z 14010KT 21/16 A2994 RMK A01 T02060155  RH  073%=      5-min Rain = 0
KWA1 220627Z 14010KT 21/16 A2994 RMK A01 T02060155  RH  073%=      5-min Rain = 0
KWA1 220628Z 14009KT 21/16 A2994 RMK A01 T02050155  RH  073%=      5-min Rain = 0
KWA1 220629Z 14009KT 21/16 A2994 RMK A01 T02050155  RH  073%=      5-min Rain = 0
KWA1 220630Z 14010KT 21/16 A2994 RMK A01 T02050156  RH  073%=      5-min Rain = 0
KWA1 220631Z 14010KT 21/16 A2994 RMK A01 T02050156  RH  073%=      5-min Rain = 0
KWA1 220632Z 14009KT 21/16 A2994 RMK A01 T02050156  RH  073%=      5-min Rain = 0
KWA1 220633Z 14009KT 21/16 A2994 RMK A01 T02050156  RH  074%=      5-min Rain = 0
KWA1 220634Z 14008KT 21/16 A2994 RMK A01 T02050156  RH  074%=      5-min Rain = 0
KWA1 220635Z 14009KT 20/16 A2994 RMK A01 T02040157  RH  074%=      5-min Rain = 0
KWA1 220636Z 14008KT 20/16 A2994 RMK A01 T02040157  RH  074%=      5-min Rain = 0
KWA1 220637Z 14008KT 20/16 A2994 RMK A01 T02040157  RH  074%=      5-min Rain = 0
KWA1 220638Z 14009KT 20/16 A2994 RMK A01 T02040157  RH  074%=      5-min Rain = 0
KWA1 220639Z 14008KT 20/16 A2994 RMK A01 T02030157  RH  075%=      5-min Rain = 0
KWA1 220640Z 14008KT 20/16 A2994 RMK A01 T02030158  RH  075%=      5-min Rain = 0
KWA1 220641Z 14008KT 20/16 A2994 RMK A01 T02030157  RH  075%=      5-min Rain = 0
KWA1 220642Z 14010KT 20/16 A2994 RMK A01 T02030158  RH  075%=      5-min Rain = 0
KWA1 220643Z 14009KT 20/16 A2994 RMK A01 T02030158  RH  075%=      5-min Rain = 0
KWA1 220644Z 14009KT 20/16 A2994 RMK A01 T02030158  RH  075%=      5-min Rain = 0
KWA1 220645Z 14009KT 20/16 A2994 RMK A01 T02030158  RH  075%=      5-min Rain = 0
KWA1 220646Z 14009KT 20/16 A2994 RMK A01 T02020158  RH  075%=      5-min Rain = 0
KWA1 220647Z 14009KT 20/16 A2994 RMK A01 T02030159  RH  076%=      5-min Rain = 0
KWA1 220648Z 14010KT 20/16 A2994 RMK A01 T02020159  RH  076%=      5-min Rain = 0
KWA1 220649Z 14009KT 20/16 A2994 RMK A01 T02020159  RH  076%=      5-min Rain = 0
KWA1 220650Z 14009KT 20/16 A2994 RMK A01 T02020159  RH  076%=      5-min Rain = 0
KWA1 220651Z 14009KT 20/16 A2994 RMK A01 T02020160  RH  077%=      5-min Rain = 0
KWA1 220652Z 13008KT 20/16 A2994 RMK A01 T02020160  RH  077%=      5-min Rain = 0
KWA1 220653Z 14007KT 20/16 A2994 RMK A01 T02020159  RH  076%=      5-min Rain = 0
KWA1 220654Z 14007KT 20/16 A2994 RMK A01 T02020160  RH  077%=      5-min Rain = 0
KWA1 220655Z 14007KT 20/16 A2994 RMK A01 T02010159  RH  077%=      5-min Rain = 0
KWA1 220656Z 14008KT 20/16 A2994 RMK A01 T02010160  RH  077%=      5-min Rain = 0
KWA1 220657Z 14006KT 20/16 A2994 RMK A01 T02010160  RH  077%=      5-min Rain = 0
KWA1 220658Z 14007KT 20/16 A2994 RMK A01 T02010159  RH  077%=      5-min Rain = 0
KWA1 220659Z 14008KT 20/16 A2993 RMK A01 T02000161  RH  078%=      5-min Rain = 0
KWA1 220700Z 14009KT 20/16 A2993 RMK A01 T02000161  RH  078%=      5-min Rain = 0
KWA1 220701Z 14009KT 20/16 A2993 RMK A01 T02000161  RH  078%=      5-min Rain = 0
KWA1 220702Z 15007KT 20/16 A2993 RMK A01 T02010161  RH  078%=      5-min Rain = 0
KWA1 220703Z 14007KT 20/16 A2993 RMK A01 T02010160  RH  077%=      5-min Rain = 0
KWA1 220704Z 15007KT 20/16 A2993 RMK A01 T02000160  RH  077%=      5-min Rain = 0
KWA1 220705Z 15007KT 20/16 A2993 RMK A01 T02000160  RH  078%=      5-min Rain = 0
KWA1 220706Z 15008KT 20/16 A2993 RMK A01 T01990160  RH  078%=      5-min Rain = 0
KWA1 220707Z 15009KT 20/16 A2993 RMK A01 T01990160  RH  078%=      5-min Rain = 0
KWA1 220708Z 15008KT 20/16 A2993 RMK A01 T01990160  RH  078%=      5-min Rain = 0
KWA1 220709Z 16009KT 20/16 A2993 RMK A01 T02000161  RH  078%=      5-min Rain = 0
KWA1 220710Z 16008KT 20/16 A2993 RMK A01 T01990160  RH  078%=      5-min Rain = 0
KWA1 220711Z 16009KT 20/16 A2993 RMK A01 T01990161  RH  078%=      5-min Rain = 0
KWA1 220712Z 16007KT 20/16 A2994 RMK A01 T01990160  RH  078%=      5-min Rain = 0
KWA1 220713Z 17009KT 20/16 A2994 RMK A01 T02000160  RH  078%=      5-min Rain = 0
KWA1 220714Z 16011KT 20/16 A2994 RMK A01 T01990162  RH  079%=      5-min Rain = 0
KWA1 220715Z 17009KT 20/16 A2994 RMK A01 T02000161  RH  078%=      5-min Rain = 0
KWA1 220716Z 17009KT 20/16 A2994 RMK A01 T02000161  RH  078%=      5-min Rain = 0
KWA1 220717Z 17010KT 20/16 A2994 RMK A01 T02000161  RH  078%=      5-min Rain = 0
KWA1 220718Z 16009KT 20/16 A2994 RMK A01 T02000161  RH  078%=      5-min Rain = 0
KWA1 220719Z 17008KT 20/16 A2994 RMK A01 T02000161  RH  078%=      5-min Rain = 0
KWA1 220720Z 16009KT 20/16 A2994 RMK A01 T02000161  RH  078%=      5-min Rain = 0
KWA1 220721Z 17009KT 20/16 A2994 RMK A01 T01990161  RH  079%=      5-min Rain = 0
KWA1 220722Z 17010KT 20/16 A2994 RMK A01 T01990162  RH  079%=      5-min Rain = 0
KWA1 220723Z 17010KT 20/16 A2994 RMK A01 T02000162  RH  079%=      5-min Rain = 0
KWA1 220724Z 16009KT 20/16 A2994 RMK A01 T02000161  RH  078%=      5-min Rain = 0
KWA1 220725Z 17009KT 20/16 A2994 RMK A01 T02000161  RH  078%=      5-min Rain = 0
KWA1 220726Z 17007KT 20/16 A2994 RMK A01 T02000161  RH  079%=      5-min Rain = 0
KWA1 220727Z 17008KT 20/16 A2994 RMK A01 T02000162  RH  079%=      5-min Rain = 0
KWA1 220728Z 16009KT 20/16 A2994 RMK A01 T02000161  RH  078%=      5-min Rain = 0
KWA1 220729Z 16010KT 20/16 A2994 RMK A01 T01990161  RH  079%=      5-min Rain = 0
KWA1 220730Z 16008KT 20/16 A2994 RMK A01 T01990161  RH  078%=      5-min Rain = 0
KWA1 220731Z 16009KT 20/16 A2994 RMK A01 T01990161  RH  079%=      5-min Rain = 0
KWA1 220732Z 17009KT 20/16 A2994 RMK A01 T01990162  RH  079%=      5-min Rain = 0
KWA1 220733Z 16008KT 20/16 A2994 RMK A01 T01990161  RH  078%=      5-min Rain = 0
KWA1 220734Z 16008KT 20/16 A2994 RMK A01 T01990161  RH  079%=      5-min Rain = 0
KWA1 220735Z 16007KT 20/16 A2994 RMK A01 T01990161  RH  079%=      5-min Rain = 0
KWA1 220736Z 16008KT 20/16 A2994 RMK A01 T01980160  RH  079%=      5-min Rain = 0
KWA1 220737Z 17012KT 20/16 A2994 RMK A01 T01980161  RH  079%=      5-min Rain = 0
KWA1 220738Z 16009KT 20/16 A2994 RMK A01 T01990161  RH  079%=      5-min Rain = 0
KWA1 220739Z 15008KT 20/16 A2993 RMK A01 T01990161  RH  079%=      5-min Rain = 0
KWA1 220740Z 16009KT 20/16 A2993 RMK A01 T01990161  RH  079%=      5-min Rain = 0
KWA1 220741Z 16008KT 20/16 A2993 RMK A01 T01990161  RH  079%=      5-min Rain = 0
KWA1 220742Z 16008KT 20/16 A2993 RMK A01 T01990160  RH  079%=      5-min Rain = 0
KWA1 220743Z 16008KT 20/16 A2993 RMK A01 T01980160  RH  079%=      5-min Rain = 0
KWA1 220744Z 16008KT 20/16 A2993 RMK A01 T01980160  RH  079%=      5-min Rain = 0
KWA1 220745Z 16008KT 20/16 A2993 RMK A01 T01970160  RH  079%=      5-min Rain = 0
KWA1 220746Z 16008KT 20/16 A2993 RMK A01 T01970160  RH  079%=      5-min Rain = 0
KWA1 220747Z 16008KT 20/16 A2993 RMK A01 T01970160  RH  079%=      5-min Rain = 0
KWA1 220748Z 17009KT 20/16 A2993 RMK A01 T01970160  RH  079%=      5-min Rain = 0
KWA1 220749Z 16009KT 20/16 A2993 RMK A01 T01970160  RH  079%=      5-min Rain = 0
KWA1 220750Z 17009KT 20/16 A2993 RMK A01 T01970160  RH  079%=      5-min Rain = 0
KWA1 220751Z 16008KT 20/16 A2993 RMK A01 T01970160  RH  079%=      5-min Rain = 0
KWA1 220752Z 17008KT 20/16 A2993 RMK A01 T01970159  RH  079%=      5-min Rain = 0
KWA1 220753Z 17008KT 20/16 A2993 RMK A01 T01960159  RH  079%=      5-min Rain = 0
KWA1 220754Z 16008KT 20/16 A2993 RMK A01 T01960159  RH  079%=      5-min Rain = 0
KWA1 220755Z 18009KT 20/16 A2993 RMK A01 T01960159  RH  079%=      5-min Rain = 0
KWA1 220756Z 18009KT 20/16 A2993 RMK A01 T01960159  RH  079%=      5-min Rain = 0
KWA1 220757Z 17009KT 20/16 A2993 RMK A01 T01960159  RH  079%=      5-min Rain = 0
KWA1 220758Z 17008KT 20/16 A2994 RMK A01 T01960158  RH  079%=      5-min Rain = 0
KWA1 220759Z 17008KT 20/16 A2994 RMK A01 T01960158  RH  079%=      5-min Rain = 0
KWA1 220800Z 17007KT 20/16 A2994 RMK A01 T01960158  RH  079%=      5-min Rain = 0
KWA1 220801Z 16008KT 20/16 A2994 RMK A01 T01950157  RH  079%=      5-min Rain = 0
KWA1 220802Z 16007KT 20/16 A2994 RMK A01 T01950158  RH  079%=      5-min Rain = 0
KWA1 220803Z 17006KT 20/16 A2994 RMK A01 T01950158  RH  079%=      5-min Rain = 0
KWA1 220804Z 17008KT 19/16 A2993 RMK A01 T01940157  RH  079%=      5-min Rain = 0
KWA1 220805Z 17009KT 19/16 A2993 RMK A01 T01940159  RH  080%=      5-min Rain = 0
KWA1 220806Z 16008KT 20/16 A2993 RMK A01 T01950158  RH  079%=      5-min Rain = 0
KWA1 220807Z 17008KT 20/16 A2993 RMK A01 T01950158  RH  079%=      5-min Rain = 0
KWA1 220808Z 16008KT 20/16 A2993 RMK A01 T01950157  RH  079%=      5-min Rain = 0
KWA1 220809Z 16009KT 19/16 A2993 RMK A01 T01940158  RH  079%=      5-min Rain = 0
KWA1 220810Z 17009KT 19/16 A2993 RMK A01 T01940158  RH  079%=      5-min Rain = 0
KWA1 220811Z 17010KT 20/16 A2993 RMK A01 T01950158  RH  079%=      5-min Rain = 0
KWA1 220812Z 17010KT 20/16 A2993 RMK A01 T01950158  RH  079%=      5-min Rain = 0
KWA1 220813Z 16008KT 20/16 A2993 RMK A01 T01950157  RH  079%=      5-min Rain = 0
KWA1 220814Z 17011KT 19/16 A2993 RMK A01 T01940157  RH  079%=      5-min Rain = 0
KWA1 220815Z 17010KT 19/16 A2993 RMK A01 T01940157  RH  079%=      5-min Rain = 0
KWA1 220816Z 17011KT 19/16 A2993 RMK A01 T01940157  RH  079%=      5-min Rain = 0
KWA1 220817Z 17010KT 19/16 A2993 RMK A01 T01940156  RH  079%=      5-min Rain = 0
KWA1 220818Z 17009KT 19/16 A2993 RMK A01 T01940156  RH  079%=      5-min Rain = 0
KWA1 220819Z 17010KT 19/16 A2993 RMK A01 T01930156  RH  079%=      5-min Rain = 0
KWA1 220820Z 17011KT 19/16 A2993 RMK A01 T01930156  RH  079%=      5-min Rain = 0
KWA1 220821Z 17010KT 19/16 A2993 RMK A01 T01930156  RH  079%=      5-min Rain = 0
KWA1 220822Z 17009KT 19/16 A2994 RMK A01 T01920155  RH  079%=      5-min Rain = 0
KWA1 220823Z 17011KT 19/16 A2993 RMK A01 T01920155  RH  079%=      5-min Rain = 0
KWA1 220824Z 17012KT 19/16 A2993 RMK A01 T01930156  RH  079%=      5-min Rain = 0
KWA1 220825Z 17011KT 19/16 A2993 RMK A01 T01930156  RH  079%=      5-min Rain = 0
KWA1 220826Z 17011KT 19/16 A2993 RMK A01 T01930155  RH  079%=      5-min Rain = 0
KWA1 220827Z 17013KT 19/16 A2993 RMK A01 T01920155  RH  079%=      5-min Rain = 0
KWA1 220828Z 16010KT 19/16 A2993 RMK A01 T01920155  RH  079%=      5-min Rain = 0
KWA1 220829Z 16010KT 19/16 A2993 RMK A01 T01920155  RH  079%=      5-min Rain = 0
KWA1 220830Z 17009KT 19/16 A2993 RMK A01 T01920155  RH  079%=      5-min Rain = 0
KWA1 220831Z 17010KT 19/16 A2993 RMK A01 T01910155  RH  079%=      5-min Rain = 0
KWA1 220832Z 17010KT 19/16 A2993 RMK A01 T01910155  RH  080%=      5-min Rain = 0
KWA1 220833Z 17009KT 19/15 A2993 RMK A01 T01910154  RH  079%=      5-min Rain = 0
KWA1 220834Z 17012KT 19/16 A2993 RMK A01 T01910155  RH  080%=      5-min Rain = 0
KWA1 220835Z 17011KT 19/16 A2993 RMK A01 T01910155  RH  080%=      5-min Rain = 0
KWA1 220836Z 16010KT 19/16 A2993 RMK A01 T01910155  RH  080%=      5-min Rain = 0
KWA1 220837Z 16009KT 19/16 A2993 RMK A01 T01910155  RH  079%=      5-min Rain = 0
KWA1 220838Z 16010KT 19/16 A2993 RMK A01 T01910155  RH  080%=      5-min Rain = 0
KWA1 220839Z 16010KT 19/16 A2993 RMK A01 T01910155  RH  080%=      5-min Rain = 0
KWA1 220840Z 16010KT 19/16 A2993 RMK A01 T01900155  RH  080%=      5-min Rain = 0
KWA1 220841Z 16010KT 19/16 A2993 RMK A01 T01900155  RH  080%=      5-min Rain = 0
KWA1 220842Z 16009KT 19/15 A2993 RMK A01 T01900154  RH  080%=      5-min Rain = 0
KWA1 220843Z 16009KT 19/15 A2993 RMK A01 T01890154  RH  080%=      5-min Rain = 0
KWA1 220844Z 16010KT 19/15 A2993 RMK A01 T01890154  RH  080%=      5-min Rain = 0
KWA1 220845Z 17010KT 19/16 A2993 RMK A01 T01890155  RH  080%=      5-min Rain = 0
KWA1 220846Z 16010KT 19/15 A2993 RMK A01 T01890154  RH  080%=      5-min Rain = 0
KWA1 220847Z 17010KT 19/15 A2993 RMK A01 T01890154  RH  080%=      5-min Rain = 0
KWA1 220848Z 17011KT 19/15 A2993 RMK A01 T01890153  RH  080%=      5-min Rain = 0
KWA1 220849Z 17010KT 19/15 A2993 RMK A01 T01890154  RH  080%=      5-min Rain = 0
KWA1 220850Z 17009KT 19/15 A2993 RMK A01 T01890153  RH  079%=      5-min Rain = 0
KWA1 220851Z 17010KT 19/15 A2993 RMK A01 T01890153  RH  080%=      5-min Rain = 0
KWA1 220852Z 17010KT 19/15 A2993 RMK A01 T01880153  RH  080%=      5-min Rain = 0
KWA1 220853Z 16011KT 19/15 A2993 RMK A01 T01880153  RH  080%=      5-min Rain = 0
KWA1 220854Z 17011KT 19/15 A2993 RMK A01 T01880153  RH  080%=      5-min Rain = 0
KWA1 220855Z 17009KT 19/15 A2993 RMK A01 T01890153  RH  080%=      5-min Rain = 0
KWA1 220856Z 17010KT 19/15 A2993 RMK A01 T01890152  RH  079%=      5-min Rain = 0
KWA1 220857Z 17009KT 19/15 A2993 RMK A01 T01880152  RH  079%=      5-min Rain = 0
KWA1 220858Z 17012KT 19/15 A2993 RMK A01 T01880152  RH  080%=      5-min Rain = 0
KWA1 220859Z 16010KT 19/15 A2993 RMK A01 T01880152  RH  079%=      5-min Rain = 0
KWA1 220900Z 17010KT 19/15 A2993 RMK A01 T01880152  RH  080%=      5-min Rain = 0
KWA1 220901Z 17008KT 19/15 A2993 RMK A01 T01880152  RH  079%=      5-min Rain = 0
KWA1 220902Z 17008KT 19/15 A2993 RMK A01 T01870151  RH  079%=      5-min Rain = 0
KWA1 220903Z 17010KT 19/15 A2993 RMK A01 T01880152  RH  080%=      5-min Rain = 0
KWA1 220904Z 17009KT 19/15 A2993 RMK A01 T01880152  RH  080%=      5-min Rain = 0
KWA1 220905Z 17010KT 19/15 A2993 RMK A01 T01880152  RH  080%=      5-min Rain = 0
KWA1 220906Z 17010KT 19/15 A2993 RMK A01 T01870152  RH  080%=      5-min Rain = 0
KWA1 220907Z 17009KT 19/15 A2993 RMK A01 T01870151  RH  079%=      5-min Rain = 0
KWA1 220908Z 17008KT 19/15 A2993 RMK A01 T01870151  RH  080%=      5-min Rain = 0
KWA1 220909Z 18009KT 19/15 A2993 RMK A01 T01870151  RH  080%=      5-min Rain = 0
KWA1 220910Z 17009KT 19/15 A2993 RMK A01 T01870152  RH  080%=      5-min Rain = 0
KWA1 220911Z 17010KT 19/15 A2993 RMK A01 T01870151  RH  080%=      5-min Rain = 0
KWA1 220912Z 17008KT 19/15 A2993 RMK A01 T01870152  RH  080%=      5-min Rain = 0
KWA1 220913Z 17008KT 19/15 A2993 RMK A01 T01870151  RH  079%=      5-min Rain = 0
KWA1 220914Z 17010KT 19/15 A2993 RMK A01 T01870151  RH  080%=      5-min Rain = 0
KWA1 220915Z 17010KT 19/15 A2993 RMK A01 T01870151  RH  080%=      5-min Rain = 0
KWA1 220916Z 17009KT 19/15 A2993 RMK A01 T01870151  RH  080%=      5-min Rain = 0
KWA1 220917Z 17009KT 19/15 A2993 RMK A01 T01870151  RH  080%=      5-min Rain = 0
KWA1 220918Z 17008KT 19/15 A2993 RMK A01 T01860150  RH  080%=      5-min Rain = 0
KWA1 220919Z 17009KT 19/15 A2993 RMK A01 T01850150  RH  080%=      5-min Rain = 0
KWA1 220920Z 16008KT 19/15 A2993 RMK A01 T01850151  RH  080%=      5-min Rain = 0
KWA1 220921Z 16006KT 19/15 A2993 RMK A01 T01850150  RH  080%=      5-min Rain = 0
KWA1 220922Z 15007KT 18/15 A2993 RMK A01 T01840150  RH  080%=      5-min Rain = 0
KWA1 220923Z 15006KT 18/15 A2993 RMK A01 T01840150  RH  080%=      5-min Rain = 0
KWA1 220924Z 15006KT 18/15 A2993 RMK A01 T01840149  RH  081%=      5-min Rain = 0
KWA1 220925Z 15005KT 18/15 A2993 RMK A01 T01840151  RH  081%=      5-min Rain = 0
KWA1 220926Z 17006KT 18/15 A2993 RMK A01 T01840150  RH  081%=      5-min Rain = 0
KWA1 220927Z 16006KT 18/15 A2994 RMK A01 T01830151  RH  081%=      5-min Rain = 0
KWA1 220928Z 16006KT 18/15 A2994 RMK A01 T01830150  RH  081%=      5-min Rain = 0
KWA1 220929Z 16005KT 18/15 A2994 RMK A01 T01830151  RH  081%=      5-min Rain = 0
KWA1 220930Z 16008KT 18/15 A2994 RMK A01 T01830151  RH  081%=      5-min Rain = 0
KWA1 220931Z 16009KT 18/15 A2994 RMK A01 T01830151  RH  081%=      5-min Rain = 0
KWA1 220932Z 17011KT 18/15 A2994 RMK A01 T01830151  RH  081%=      5-min Rain = 0
KWA1 220933Z 16009KT 18/15 A2994 RMK A01 T01840152  RH  081%=      5-min Rain = 0
KWA1 220934Z 17009KT 18/15 A2994 RMK A01 T01840150  RH  081%=      5-min Rain = 0
KWA1 220935Z 17008KT 19/15 A2994 RMK A01 T01850151  RH  081%=      5-min Rain = 0
KWA1 220936Z 17008KT 18/15 A2994 RMK A01 T01840151  RH  081%=      5-min Rain = 0
KWA1 220937Z 16008KT 18/15 A2994 RMK A01 T01840151  RH  081%=      5-min Rain = 0
KWA1 220938Z 16006KT 18/15 A2994 RMK A01 T01840150  RH  081%=      5-min Rain = 0
KWA1 220939Z 16006KT 18/15 A2994 RMK A01 T01840150  RH  081%=      5-min Rain = 0
KWA1 220940Z 16009KT 18/15 A2994 RMK A01 T01830150  RH  081%=      5-min Rain = 0
KWA1 220941Z 16009KT 18/15 A2994 RMK A01 T01820150  RH  081%=      5-min Rain = 0
KWA1 220942Z 16008KT 18/15 A2994 RMK A01 T01820150  RH  081%=      5-min Rain = 0
KWA1 220943Z 16008KT 18/15 A2994 RMK A01 T01830150  RH  081%=      5-min Rain = 0
KWA1 220944Z 16006KT 18/15 A2994 RMK A01 T01830150  RH  081%=      5-min Rain = 0
KWA1 220945Z 16007KT 18/15 A2994 RMK A01 T01830150  RH  081%=      5-min Rain = 0
KWA1 220946Z 16007KT 18/15 A2994 RMK A01 T01820150  RH  081%=      5-min Rain = 0
KWA1 220947Z 17007KT 18/15 A2994 RMK A01 T01820150  RH  082%=      5-min Rain = 0
KWA1 220948Z 17006KT 18/15 A2994 RMK A01 T01820149  RH  081%=      5-min Rain = 0
KWA1 220949Z 16006KT 18/15 A2994 RMK A01 T01810149  RH  081%=      5-min Rain = 0
KWA1 220950Z 16006KT 18/15 A2994 RMK A01 T01810148  RH  081%=      5-min Rain = 0
KWA1 220951Z 17007KT 18/15 A2994 RMK A01 T01800149  RH  082%=      5-min Rain = 0
KWA1 220952Z 17007KT 18/15 A2994 RMK A01 T01800149  RH  082%=      5-min Rain = 0
KWA1 220953Z 16007KT 18/15 A2994 RMK A01 T01810150  RH  082%=      5-min Rain = 0
KWA1 220954Z 16006KT 18/15 A2994 RMK A01 T01800149  RH  082%=      5-min Rain = 0
KWA1 220955Z 15005KT 18/15 A2994 RMK A01 T01800148  RH  081%=      5-min Rain = 0
KWA1 220956Z 15005KT 18/15 A2994 RMK A01 T01800148  RH  082%=      5-min Rain = 0
KWA1 220957Z 15006KT 18/15 A2994 RMK A01 T01790149  RH  082%=      5-min Rain = 0
KWA1 220958Z 14005KT 18/15 A2994 RMK A01 T01790149  RH  082%=      5-min Rain = 0
KWA1 220959Z 15006KT 18/15 A2994 RMK A01 T01790149  RH  083%=      5-min Rain = 0
KWA1 221000Z 15007KT 18/15 A2994 RMK A01 T01790150  RH  083%=      5-min Rain = 0
KWA1 221001Z 15006KT 18/15 A2994 RMK A01 T01790149  RH  082%=      5-min Rain = 0
KWA1 221002Z 14009KT 18/15 A2994 RMK A01 T01790149  RH  083%=      5-min Rain = 0
KWA1 221003Z 15007KT 18/15 A2994 RMK A01 T01800151  RH  083%=      5-min Rain = 0
KWA1 221004Z 15007KT 18/15 A2994 RMK A01 T01800150  RH  082%=      5-min Rain = 0
KWA1 221005Z 15006KT 18/15 A2994 RMK A01 T01800150  RH  083%=      5-min Rain = 0
KWA1 221006Z 15005KT 18/15 A2994 RMK A01 T01800149  RH  082%=      5-min Rain = 0
KWA1 221007Z 15006KT 18/15 A2995 RMK A01 T01800150  RH  082%=      5-min Rain = 0
KWA1 221008Z 16006KT 18/15 A2995 RMK A01 T01790149  RH  082%=      5-min Rain = 0
KWA1 221009Z 16007KT 18/15 A2995 RMK A01 T01790149  RH  082%=      5-min Rain = 0
KWA1 221010Z 16007KT 18/15 A2995 RMK A01 T01790148  RH  082%=      5-min Rain = 0
KWA1 221011Z 16007KT 18/15 A2995 RMK A01 T01780148  RH  083%=      5-min Rain = 0
KWA1 221012Z 15006KT 18/15 A2994 RMK A01 T01780148  RH  082%=      5-min Rain = 0
KWA1 221013Z 15006KT 18/15 A2994 RMK A01 T01780148  RH  082%=      5-min Rain = 0
KWA1 221014Z 15005KT 18/15 A2994 RMK A01 T01780148  RH  083%=      5-min Rain = 0
KWA1 221015Z 15005KT 18/15 A2994 RMK A01 T01780149  RH  083%=      5-min Rain = 0
KWA1 221016Z 15004KT 18/15 A2994 RMK A01 T01780149  RH  083%=      5-min Rain = 0
KWA1 221017Z 15006KT 18/15 A2994 RMK A01 T01780148  RH  083%=      5-min Rain = 0
KWA1 221018Z 15007KT 18/15 A2994 RMK A01 T01770149  RH  083%=      5-min Rain = 0
KWA1 221019Z 15007KT 18/15 A2995 RMK A01 T01770148  RH  083%=      5-min Rain = 0
KWA1 221020Z 15005KT 18/15 A2995 RMK A01 T01780149  RH  083%=      5-min Rain = 0
KWA1 221021Z 15004KT 18/15 A2995 RMK A01 T01780147  RH  082%=      5-min Rain = 0
KWA1 221022Z 14006KT 18/15 A2995 RMK A01 T01770147  RH  083%=      5-min Rain = 0
KWA1 221023Z 15006KT 18/15 A2995 RMK A01 T01770149  RH  084%=      5-min Rain = 0
KWA1 221024Z 15005KT 18/15 A2995 RMK A01 T01770148  RH  083%=      5-min Rain = 0
KWA1 221025Z 15004KT 18/15 A2995 RMK A01 T01770147  RH  083%=      5-min Rain = 0
KWA1 221026Z 15003KT 18/15 A2995 RMK A01 T01770147  RH  083%=      5-min Rain = 0
KWA1 221027Z 15004KT 18/15 A2995 RMK A01 T01760146  RH  083%=      5-min Rain = 0
KWA1 221028Z 15004KT 18/15 A2995 RMK A01 T01750145  RH  082%=      5-min Rain = 0
KWA1 221029Z 14004KT 18/15 A2995 RMK A01 T01750146  RH  083%=      5-min Rain = 0
KWA1 221030Z 15005KT 18/15 A2995 RMK A01 T01750147  RH  084%=      5-min Rain = 0
KWA1 221031Z 14005KT 18/15 A2995 RMK A01 T01750147  RH  083%=      5-min Rain = 0
KWA1 221032Z 15004KT 18/15 A2995 RMK A01 T01750148  RH  084%=      5-min Rain = 0
KWA1 221033Z 14004KT 18/15 A2994 RMK A01 T01760148  RH  084%=      5-min Rain = 0
KWA1 221034Z 14003KT 18/15 A2994 RMK A01 T01760148  RH  084%=      5-min Rain = 0
KWA1 221035Z 14004KT 18/15 A2994 RMK A01 T01750146  RH  083%=      5-min Rain = 0
KWA1 221036Z 15004KT 17/15 A2994 RMK A01 T01740145  RH  083%=      5-min Rain = 0
KWA1 221037Z 14004KT 17/15 A2994 RMK A01 T01740146  RH  084%=      5-min Rain = 0
KWA1 221038Z 14004KT 17/15 A2994 RMK A01 T01730146  RH  084%=      5-min Rain = 0
KWA1 221039Z 14004KT 17/15 A2994 RMK A01 T01730146  RH  084%=      5-min Rain = 0
KWA1 221040Z 14004KT 17/15 A2994 RMK A01 T01730145  RH  084%=      5-min Rain = 0
KWA1 221041Z 14004KT 17/14 A2995 RMK A01 T01720144  RH  083%=      5-min Rain = 0
KWA1 221042Z 15004KT 17/14 A2995 RMK A01 T01720144  RH  084%=      5-min Rain = 0
KWA1 221043Z 15004KT 17/14 A2995 RMK A01 T01710143  RH  084%=      5-min Rain = 0
KWA1 221044Z 15005KT 17/14 A2995 RMK A01 T01710144  RH  084%=      5-min Rain = 0
KWA1 221045Z 16005KT 17/14 A2995 RMK A01 T01700143  RH  084%=      5-min Rain = 0
KWA1 221046Z 16005KT 17/14 A2995 RMK A01 T01700143  RH  084%=      5-min Rain = 0
KWA1 221047Z 16006KT 17/14 A2995 RMK A01 T01700141  RH  083%=      5-min Rain = 0
KWA1 221048Z 16005KT 17/14 A2995 RMK A01 T01690140  RH  083%=      5-min Rain = 0
KWA1 221049Z 16005KT 17/14 A2995 RMK A01 T01680141  RH  084%=      5-min Rain = 0
KWA1 221050Z 16005KT 17/14 A2995 RMK A01 T01680140  RH  084%=      5-min Rain = 0
KWA1 221051Z 16005KT 17/14 A2995 RMK A01 T01670140  RH  084%=      5-min Rain = 0
KWA1 221052Z 16005KT 17/14 A2995 RMK A01 T01670140  RH  084%=      5-min Rain = 0
KWA1 221053Z 16005KT 17/14 A2995 RMK A01 T01670140  RH  084%=      5-min Rain = 0
KWA1 221054Z 15005KT 17/14 A2995 RMK A01 T01670141  RH  085%=      5-min Rain = 0
KWA1 221055Z 15004KT 17/14 A2995 RMK A01 T01660140  RH  085%=      5-min Rain = 0
KWA1 221056Z 15004KT 17/14 A2995 RMK A01 T01670141  RH  085%=      5-min Rain = 0
KWA1 221057Z 15005KT 17/14 A2995 RMK A01 T01660140  RH  085%=      5-min Rain = 0
KWA1 221058Z 16004KT 17/14 A2995 RMK A01 T01660141  RH  085%=      5-min Rain = 0
KWA1 221059Z 16004KT 17/14 A2995 RMK A01 T01660141  RH  085%=      5-min Rain = 0
KWA1 221100Z 16004KT 17/14 A2995 RMK A01 T01660141  RH  085%=      5-min Rain = 0
KWA1 221101Z 16004KT 17/14 A2995 RMK A01 T01660141  RH  085%=      5-min Rain = 0
KWA1 221102Z 17005KT 17/14 A2995 RMK A01 T01660142  RH  086%=      5-min Rain = 0
KWA1 221103Z 16007KT 17/15 A2995 RMK A01 T01670145  RH  087%=      5-min Rain = 0
KWA1 221104Z 16005KT 17/15 A2995 RMK A01 T01690147  RH  087%=      5-min Rain = 0
KWA1 221105Z 16003KT 17/15 A2995 RMK A01 T01700145  RH  085%=      5-min Rain = 0
KWA1 221106Z 16004KT 17/14 A2995 RMK A01 T01690144  RH  085%=      5-min Rain = 0
KWA1 221107Z 15005KT 17/14 A2995 RMK A01 T01690144  RH  085%=      5-min Rain = 0
KWA1 221108Z 15004KT 17/14 A2995 RMK A01 T01690144  RH  085%=      5-min Rain = 0
KWA1 221109Z 15004KT 17/14 A2995 RMK A01 T01680144  RH  085%=      5-min Rain = 0
KWA1 221110Z 16005KT 17/14 A2995 RMK A01 T01680144  RH  086%=      5-min Rain = 0
KWA1 221111Z 15004KT 17/15 A2995 RMK A01 T01690146  RH  086%=      5-min Rain = 0
KWA1 221112Z 16005KT 17/15 A2995 RMK A01 T01690145  RH  086%=      5-min Rain = 0
KWA1 221113Z 18005KT 17/15 A2995 RMK A01 T01700146  RH  086%=      5-min Rain = 0
KWA1 221114Z 17005KT 17/15 A2995 RMK A01 T01700146  RH  086%=      5-min Rain = 0
KWA1 221115Z 17005KT 17/15 A2995 RMK A01 T01700146  RH  085%=      5-min Rain = 0
KWA1 221116Z 16005KT 17/15 A2995 RMK A01 T01700145  RH  085%=      5-min Rain = 0
KWA1 221117Z 17005KT 17/15 A2995 RMK A01 T01700146  RH  085%=      5-min Rain = 0
KWA1 221118Z 17005KT 17/15 A2995 RMK A01 T01700145  RH  085%=      5-min Rain = 0
KWA1 221119Z 16005KT 17/14 A2995 RMK A01 T01700144  RH  085%=      5-min Rain = 0
KWA1 221120Z 16005KT 17/14 A2995 RMK A01 T01690144  RH  085%=      5-min Rain = 0
KWA1 221121Z 16005KT 17/14 A2995 RMK A01 T01690144  RH  085%=      5-min Rain = 0
KWA1 221122Z 16004KT 17/15 A2995 RMK A01 T01690145  RH  086%=      5-min Rain = 0
KWA1 221123Z 15004KT 17/14 A2995 RMK A01 T01690144  RH  085%=      5-min Rain = 0
KWA1 221124Z 15004KT 17/14 A2995 RMK A01 T01680143  RH  085%=      5-min Rain = 0
KWA1 221125Z 15004KT 17/14 A2995 RMK A01 T01670142  RH  085%=      5-min Rain = 0
KWA1 221126Z 15005KT 17/14 A2994 RMK A01 T01670143  RH  086%=      5-min Rain = 0
KWA1 221127Z 15004KT 17/15 A2995 RMK A01 T01670145  RH  087%=      5-min Rain = 0
KWA1 221128Z 15003KT 17/14 A2995 RMK A01 T01670143  RH  086%=      5-min Rain = 0
KWA1 221129Z 15003KT 17/14 A2995 RMK A01 T01670142  RH  085%=      5-min Rain = 0
KWA1 221130Z 15004KT 17/14 A2995 RMK A01 T01660142  RH  086%=      5-min Rain = 0
KWA1 221131Z 15004KT 17/14 A2995 RMK A01 T01660144  RH  087%=      5-min Rain = 0
KWA1 221132Z 16004KT 17/14 A2995 RMK A01 T01660143  RH  086%=      5-min Rain = 0
KWA1 221133Z 16004KT 17/14 A2995 RMK A01 T01660142  RH  086%=      5-min Rain = 0
KWA1 221134Z 16005KT 17/14 A2995 RMK A01 T01660143  RH  086%=      5-min Rain = 0
KWA1 221135Z 16005KT 17/14 A2995 RMK A01 T01660143  RH  086%=      5-min Rain = 0
KWA1 221136Z 16005KT 17/14 A2995 RMK A01 T01660142  RH  086%=      5-min Rain = 0
KWA1 221137Z 15005KT 17/14 A2995 RMK A01 T01660142  RH  086%=      5-min Rain = 0
KWA1 221138Z 15005KT 17/14 A2995 RMK A01 T01650141  RH  086%=      5-min Rain = 0
KWA1 221139Z 16005KT 17/14 A2995 RMK A01 T01650141  RH  086%=      5-min Rain = 0
KWA1 221140Z 15005KT 17/14 A2995 RMK A01 T01650142  RH  086%=      5-min Rain = 0
KWA1 221141Z 16005KT 17/14 A2996 RMK A01 T01650142  RH  086%=      5-min Rain = 0
KWA1 221142Z 15005KT 16/14 A2996 RMK A01 T01640142  RH  086%=      5-min Rain = 0
KWA1 221143Z 16004KT 17/14 A2996 RMK A01 T01650143  RH  087%=      5-min Rain = 0
KWA1 221144Z 16005KT 17/14 A2996 RMK A01 T01650142  RH  086%=      5-min Rain = 0
KWA1 221145Z 16005KT 17/14 A2996 RMK A01 T01650143  RH  087%=      5-min Rain = 0
KWA1 221146Z 15004KT 17/14 A2996 RMK A01 T01650142  RH  086%=      5-min Rain = 0
KWA1 221147Z 16004KT 17/14 A2996 RMK A01 T01650141  RH  086%=      5-min Rain = 0
KWA1 221148Z 17005KT 16/14 A2996 RMK A01 T01640141  RH  086%=      5-min Rain = 0
KWA1 221149Z 16004KT 17/14 A2996 RMK A01 T01650141  RH  086%=      5-min Rain = 0
KWA1 221150Z 17004KT 16/14 A2996 RMK A01 T01640140  RH  085%=      5-min Rain = 0
KWA1 221151Z 16004KT 16/14 A2996 RMK A01 T01640141  RH  086%=      5-min Rain = 0
KWA1 221152Z 16004KT 16/14 A2996 RMK A01 T01630139  RH  086%=      5-min Rain = 0
KWA1 221153Z 16004KT 16/14 A2996 RMK A01 T01630140  RH  086%=      5-min Rain = 0
KWA1 221154Z 16004KT 16/14 A2996 RMK A01 T01630140  RH  086%=      5-min Rain = 0
KWA1 221155Z 16004KT 16/14 A2996 RMK A01 T01630140  RH  086%=      5-min Rain = 0
KWA1 221156Z 16005KT 16/14 A2996 RMK A01 T01620139  RH  086%=      5-min Rain = 0
KWA1 221157Z 16005KT 16/14 A2996 RMK A01 T01630141  RH  087%=      5-min Rain = 0
KWA1 221158Z 16005KT 16/14 A2996 RMK A01 T01630142  RH  087%=      5-min Rain = 0
KWA1 221159Z 17005KT 16/14 A2996 RMK A01 T01630141  RH  087%=      5-min Rain = 0
KWA1 221200Z 16005KT 16/14 A2996 RMK A01 T01630141  RH  086%=      5-min Rain = 0
KWA1 221201Z 16004KT 16/14 A2996 RMK A01 T01630140  RH  086%=      5-min Rain = 0
KWA1 221202Z 15004KT 16/14 A2996 RMK A01 T01630140  RH  086%=      5-min Rain = 0
KWA1 221203Z 16004KT 16/14 A2996 RMK A01 T01630140  RH  086%=      5-min Rain = 0
KWA1 221204Z 16004KT 16/14 A2996 RMK A01 T01630141  RH  086%=      5-min Rain = 0
KWA1 221205Z 17005KT 16/14 A2996 RMK A01 T01630141  RH  087%=      5-min Rain = 0
KWA1 221206Z 17005KT 16/14 A2996 RMK A01 T01640143  RH  087%=      5-min Rain = 0
KWA1 221207Z 16005KT 17/14 A2996 RMK A01 T01650144  RH  087%=      5-min Rain = 0
KWA1 221208Z 16004KT 17/14 A2997 RMK A01 T01650143  RH  087%=      5-min Rain = 0
KWA1 221209Z 16003KT 17/14 A2997 RMK A01 T01650142  RH  086%=      5-min Rain = 0
KWA1 221210Z 16003KT 17/14 A2997 RMK A01 T01650141  RH  086%=      5-min Rain = 0
KWA1 221211Z 16003KT 16/14 A2997 RMK A01 T01640140  RH  086%=      5-min Rain = 0
KWA1 221212Z 15003KT 16/14 A2997 RMK A01 T01640140  RH  086%=      5-min Rain = 0
KWA1 221213Z 16003KT 16/14 A2997 RMK A01 T01640140  RH  086%=      5-min Rain = 0
KWA1 221214Z 16003KT 16/14 A2997 RMK A01 T01630139  RH  086%=      5-min Rain = 0
KWA1 221215Z 16003KT 16/14 A2997 RMK A01 T01630140  RH  086%=      5-min Rain = 0
KWA1 221216Z 16003KT 16/14 A2997 RMK A01 T01630140  RH  086%=      5-min Rain = 0
KWA1 221217Z 16003KT 16/14 A2997 RMK A01 T01620139  RH  086%=      5-min Rain = 0
KWA1 221218Z 16004KT 16/14 A2997 RMK A01 T01620140  RH  087%=      5-min Rain = 0
KWA1 221219Z 16003KT 16/14 A2997 RMK A01 T01620140  RH  087%=      5-min Rain = 0
KWA1 221220Z 16003KT 16/14 A2997 RMK A01 T01620141  RH  087%=      5-min Rain = 0
KWA1 221221Z 15004KT 16/14 A2997 RMK A01 T01630140  RH  087%=      5-min Rain = 0
KWA1 221222Z 15004KT 16/14 A2997 RMK A01 T01630140  RH  086%=      5-min Rain = 0
KWA1 221223Z 15004KT 16/14 A2997 RMK A01 T01630141  RH  087%=      5-min Rain = 0
KWA1 221224Z 15004KT 16/14 A2997 RMK A01 T01630141  RH  086%=      5-min Rain = 0
KWA1 221225Z 15005KT 16/14 A2997 RMK A01 T01630140  RH  086%=      5-min Rain = 0
KWA1 221226Z 15005KT 16/14 A2997 RMK A01 T01630141  RH  087%=      5-min Rain = 0
KWA1 221227Z 15005KT 16/14 A2997 RMK A01 T01640141  RH  087%=      5-min Rain = 0
KWA1 221228Z 15004KT 16/14 A2997 RMK A01 T01640141  RH  086%=      5-min Rain = 0
KWA1 221229Z 15004KT 16/14 A2997 RMK A01 T01640141  RH  086%=      5-min Rain = 0
KWA1 221230Z 15005KT 16/14 A2997 RMK A01 T01640141  RH  086%=      5-min Rain = 0
KWA1 221231Z 15005KT 17/14 A2997 RMK A01 T01650141  RH  086%=      5-min Rain = 0
KWA1 221232Z 16005KT 17/14 A2997 RMK A01 T01650142  RH  086%=      5-min Rain = 0
KWA1 221233Z 16005KT 17/14 A2997 RMK A01 T01650141  RH  086%=      5-min Rain = 0
KWA1 221234Z 16005KT 17/14 A2997 RMK A01 T01650142  RH  086%=      5-min Rain = 0
KWA1 221235Z 16005KT 17/14 A2997 RMK A01 T01650142  RH  086%=      5-min Rain = 0
KWA1 221236Z 16005KT 17/14 A2997 RMK A01 T01660142  RH  086%=      5-min Rain = 0
KWA1 221237Z 16005KT 17/14 A2997 RMK A01 T01650142  RH  086%=      5-min Rain = 0
KWA1 221238Z 17005KT 17/14 A2997 RMK A01 T01660143  RH  086%=      5-min Rain = 0
KWA1 221239Z 18005KT 17/14 A2997 RMK A01 T01660143  RH  086%=      5-min Rain = 0
KWA1 221240Z 17005KT 17/14 A2997 RMK A01 T01670144  RH  086%=      5-min Rain = 0
KWA1 221241Z 17005KT 17/14 A2997 RMK A01 T01680144  RH  086%=      5-min Rain = 0
KWA1 221242Z 17005KT 17/15 A2997 RMK A01 T01690145  RH  086%=      5-min Rain = 0
KWA1 221243Z 17006KT 17/15 A2997 RMK A01 T01690145  RH  086%=      5-min Rain = 0
KWA1 221244Z 17006KT 17/15 A2998 RMK A01 T01700146  RH  086%=      5-min Rain = 0
KWA1 221245Z 18007KT 17/15 A2998 RMK A01 T01710147  RH  086%=      5-min Rain = 0
KWA1 221246Z 17006KT 17/15 A2998 RMK A01 T01720147  RH  085%=      5-min Rain = 0
KWA1 221247Z 17005KT 17/15 A2998 RMK A01 T01720146  RH  085%=      5-min Rain = 0
KWA1 221248Z 17006KT 17/15 A2998 RMK A01 T01720146  RH  085%=      5-min Rain = 0
KWA1 221249Z 17006KT 17/15 A2997 RMK A01 T01720147  RH  085%=      5-min Rain = 0
KWA1 221250Z 17005KT 17/15 A2997 RMK A01 T01730147  RH  085%=      5-min Rain = 0
KWA1 221251Z 16005KT 17/15 A2997 RMK A01 T01720146  RH  085%=      5-min Rain = 0
KWA1 221252Z 17005KT 17/15 A2997 RMK A01 T01720146  RH  085%=      5-min Rain = 0
KWA1 221253Z 16006KT 17/15 A2997 RMK A01 T01720146  RH  085%=      5-min Rain = 0
KWA1 221254Z 16006KT 17/15 A2997 RMK A01 T01730147  RH  085%=      5-min Rain = 0
KWA1 221255Z 16006KT 17/15 A2997 RMK A01 T01730147  RH  085%=      5-min Rain = 0
KWA1 221256Z 16007KT 17/15 A2998 RMK A01 T01730148  RH  085%=      5-min Rain = 0
KWA1 221257Z 16006KT 17/15 A2998 RMK A01 T01740148  RH  085%=      5-min Rain = 0
KWA1 221258Z 16005KT 17/15 A2998 RMK A01 T01740148  RH  085%=      5-min Rain = 0
KWA1 221259Z 16007KT 17/15 A2998 RMK A01 T01740148  RH  084%=      5-min Rain = 0
KWA1 221300Z 17007KT 18/15 A2998 RMK A01 T01750149  RH  085%=      5-min Rain = 0
KWA1 221301Z 16005KT 18/15 A2998 RMK A01 T01750148  RH  084%=      5-min Rain = 0
KWA1 221302Z 17006KT 18/15 A2998 RMK A01 T01750148  RH  084%=      5-min Rain = 0
KWA1 221303Z 16006KT 18/15 A2998 RMK A01 T01750149  RH  084%=      5-min Rain = 0
KWA1 221304Z 16005KT 18/15 A2998 RMK A01 T01760149  RH  084%=      5-min Rain = 0
KWA1 221305Z 17007KT 18/15 A2998 RMK A01 T01760149  RH  084%=      5-min Rain = 0
KWA1 221306Z 17008KT 18/15 A2998 RMK A01 T01760149  RH  084%=      5-min Rain = 0
KWA1 221307Z 18008KT 18/15 A2998 RMK A01 T01770149  RH  084%=      5-min Rain = 0
KWA1 221308Z 17009KT 18/15 A2998 RMK A01 T01770149  RH  084%=      5-min Rain = 0
KWA1 221309Z 17009KT 18/15 A2998 RMK A01 T01770149  RH  083%=      5-min Rain = 0
KWA1 221310Z 18008KT 18/15 A2998 RMK A01 T01780149  RH  083%=      5-min Rain = 0
KWA1 221311Z 17008KT 18/15 A2998 RMK A01 T01780149  RH  083%=      5-min Rain = 0
KWA1 221312Z 17008KT 18/15 A2998 RMK A01 T01780149  RH  083%=      5-min Rain = 0
KWA1 221313Z 17008KT 18/15 A2998 RMK A01 T01790149  RH  083%=      5-min Rain = 0
KWA1 221314Z 17008KT 18/15 A2998 RMK A01 T01790149  RH  083%=      5-min Rain = 0
KWA1 221315Z 17008KT 18/15 A2998 RMK A01 T01790149  RH  083%=      5-min Rain = 0
KWA1 221316Z 18008KT 18/15 A2998 RMK A01 T01790149  RH  083%=      5-min Rain = 0
KWA1 221317Z 17009KT 18/15 A2998 RMK A01 T01800150  RH  083%=      5-min Rain = 0
KWA1 221318Z 17010KT 18/15 A2998 RMK A01 T01800149  RH  082%=      5-min Rain = 0
KWA1 221319Z 17009KT 18/15 A2998 RMK A01 T01790149  RH  082%=      5-min Rain = 0
KWA1 221320Z 17008KT 18/15 A2998 RMK A01 T01800149  RH  082%=      5-min Rain = 0
KWA1 221321Z 17009KT 18/15 A2999 RMK A01 T01810150  RH  082%=      5-min Rain = 0
KWA1 221322Z 17009KT 18/15 A2999 RMK A01 T01800150  RH  082%=      5-min Rain = 0
KWA1 221323Z 17009KT 18/15 A2999 RMK A01 T01810150  RH  082%=      5-min Rain = 0
KWA1 221324Z 18008KT 18/15 A2999 RMK A01 T01810150  RH  082%=      5-min Rain = 0
KWA1 221325Z 17008KT 18/15 A2999 RMK A01 T01810150  RH  082%=      5-min Rain = 0
KWA1 221326Z 17010KT 18/15 A2999 RMK A01 T01810150  RH  082%=      5-min Rain = 0
KWA1 221327Z 17010KT 18/15 A2999 RMK A01 T01810150  RH  082%=      5-min Rain = 0
KWA1 221328Z 17010KT 18/15 A2999 RMK A01 T01820150  RH  082%=      5-min Rain = 0
KWA1 221329Z 18008KT 18/15 A2999 RMK A01 T01810150  RH  082%=      5-min Rain = 0
KWA1 221330Z 17007KT 18/15 A2999 RMK A01 T01820150  RH  082%=      5-min Rain = 0
KWA1 221331Z 17008KT 18/15 A2999 RMK A01 T01820150  RH  082%=      5-min Rain = 0
KWA1 221332Z 17009KT 18/15 A2999 RMK A01 T01820150  RH  082%=      5-min Rain = 0
KWA1 221333Z 17007KT 18/15 A2999 RMK A01 T01820150  RH  081%=      5-min Rain = 0
KWA1 221334Z 17006KT 18/15 A2999 RMK A01 T01820150  RH  081%=      5-min Rain = 0
KWA1 221335Z 18007KT 18/15 A2999 RMK A01 T01830150  RH  081%=      5-min Rain = 0
KWA1 221336Z 17008KT 18/15 A2999 RMK A01 T01830150  RH  081%=      5-min Rain = 0
KWA1 221337Z 17007KT 18/15 A2999 RMK A01 T01830150  RH  081%=      5-min Rain = 0
KWA1 221338Z 17006KT 18/15 A2999 RMK A01 T01840150  RH  081%=      5-min Rain = 0
KWA1 221339Z 17006KT 18/15 A2999 RMK A01 T01840150  RH  081%=      5-min Rain = 0
KWA1 221340Z 17007KT 18/15 A2999 RMK A01 T01840150  RH  081%=      5-min Rain = 0
KWA1 221341Z 17007KT 18/15 A2999 RMK A01 T01840150  RH  080%=      5-min Rain = 0
KWA1 221342Z 15006KT 18/15 A2999 RMK A01 T01840150  RH  081%=      5-min Rain = 0
KWA1 221343Z 16007KT 18/15 A2999 RMK A01 T01840150  RH  081%=      5-min Rain = 0
KWA1 221344Z 16006KT 18/15 A2999 RMK A01 T01840150  RH  081%=      5-min Rain = 0
KWA1 221345Z 15008KT 18/15 A2999 RMK A01 T01840151  RH  081%=      5-min Rain = 0
KWA1 221346Z 16006KT 18/15 A2999 RMK A01 T01840150  RH  081%=      5-min Rain = 0
KWA1 221347Z 17008KT 18/15 A2999 RMK A01 T01840151  RH  081%=      5-min Rain = 0
KWA1 221348Z 16007KT 18/15 A2999 RMK A01 T01840150  RH  080%=      5-min Rain = 0
KWA1 221349Z 17006KT 18/15 A2999 RMK A01 T01840150  RH  080%=      5-min Rain = 0
KWA1 221350Z 16007KT 19/15 A2999 RMK A01 T01850150  RH  080%=      5-min Rain = 0
KWA1 221351Z 16007KT 19/15 A2999 RMK A01 T01850150  RH  080%=      5-min Rain = 0
KWA1 221352Z 17006KT 19/15 A2999 RMK A01 T01850151  RH  081%=      5-min Rain = 0
KWA1 221353Z 17006KT 19/15 A2999 RMK A01 T01850151  RH  080%=      5-min Rain = 0
KWA1 221354Z 16006KT 19/15 A2999 RMK A01 T01860152  RH  080%=      5-min Rain = 0
KWA1 221355Z 16007KT 19/15 A2999 RMK A01 T01860150  RH  080%=      5-min Rain = 0
KWA1 221356Z 16007KT 19/15 A2999 RMK A01 T01860150  RH  080%=      5-min Rain = 0
KWA1 221357Z 15007KT 19/15 A2999 RMK A01 T01860151  RH  080%=      5-min Rain = 0
KWA1 221358Z 16007KT 19/15 A2999 RMK A01 T01850151  RH  080%=      5-min Rain = 0
KWA1 221359Z 16008KT 19/15 A2999 RMK A01 T01850150  RH  080%=      5-min Rain = 0
KWA1 221400Z 15008KT 19/15 A2999 RMK A01 T01860151  RH  080%=      5-min Rain = 0
KWA1 221401Z 16008KT 19/15 A2999 RMK A01 T01860150  RH  080%=      5-min Rain = 0
KWA1 221402Z 18007KT 19/15 A2999 RMK A01 T01860150  RH  080%=      5-min Rain = 0
KWA1 221403Z 17008KT 19/15 A2999 RMK A01 T01870150  RH  079%=      5-min Rain = 0
KWA1 221404Z 18008KT 19/15 A30 RMK A01 T01870150  RH  079%=      5-min Rain = 0
KWA1 221405Z 18009KT 19/15 A30 RMK A01 T01870151  RH  079%=      5-min Rain = 0
KWA1 221406Z 18010KT 19/15 A30 RMK A01 T01880150  RH  079%=      5-min Rain = 0
KWA1 221407Z 18010KT 19/15 A30 RMK A01 T01870150  RH  079%=      5-min Rain = 0
KWA1 221408Z 18010KT 19/15 A30 RMK A01 T01880151  RH  079%=      5-min Rain = 0
KWA1 221409Z 17008KT 19/15 A30 RMK A01 T01880150  RH  079%=      5-min Rain = 0
KWA1 221410Z 17009KT 19/15 A30 RMK A01 T01880150  RH  079%=      5-min Rain = 0
KWA1 221411Z 16010KT 19/15 A30 RMK A01 T01880150  RH  079%=      5-min Rain = 0
KWA1 221412Z 16010KT 19/15 A2999 RMK A01 T01880151  RH  079%=      5-min Rain = 0
KWA1 221413Z 18009KT 19/15 A2999 RMK A01 T01880150  RH  079%=      5-min Rain = 0
KWA1 221414Z 17010KT 19/15 A2999 RMK A01 T01880151  RH  079%=      5-min Rain = 0
KWA1 221415Z 18011KT 19/15 A2999 RMK A01 T01890151  RH  078%=      5-min Rain = 0
KWA1 221416Z 18010KT 19/15 A2999 RMK A01 T01890150  RH  078%=      5-min Rain = 0
KWA1 221417Z 18009KT 19/15 A2999 RMK A01 T01880150  RH  078%=      5-min Rain = 0
KWA1 221418Z 18009KT 19/15 A2999 RMK A01 T01890151  RH  079%=      5-min Rain = 0
KWA1 221419Z 17012KT 19/15 A2999 RMK A01 T01890150  RH  078%=      5-min Rain = 0
KWA1 221420Z 17011KT 19/15 A2999 RMK A01 T01890150  RH  078%=      5-min Rain = 0
KWA1 221421Z 18011KT 19/15 A2999 RMK A01 T01890151  RH  078%=      5-min Rain = 0
KWA1 221422Z 18011KT 19/15 A2999 RMK A01 T01900151  RH  078%=      5-min Rain = 0
KWA1 221423Z 17010KT 19/15 A2999 RMK A01 T01900150  RH  078%=      5-min Rain = 0
KWA1 221424Z 17010KT 19/15 A2999 RMK A01 T01900151  RH  078%=      5-min Rain = 0
KWA1 221425Z 18010KT 19/15 A2999 RMK A01 T01910151  RH  078%=      5-min Rain = 0
KWA1 221426Z 17009KT 19/15 A2999 RMK A01 T01910151  RH  078%=      5-min Rain = 0
KWA1 221427Z 17011KT 19/15 A2999 RMK A01 T01910151  RH  077%=      5-min Rain = 0
KWA1 221428Z 17011KT 19/15 A2999 RMK A01 T01920151  RH  077%=      5-min Rain = 0
KWA1 221429Z 17012KT 19/15 A2999 RMK A01 T01910151  RH  077%=      5-min Rain = 0
KWA1 221430Z 17010KT 19/15 A2999 RMK A01 T01920151  RH  077%=      5-min Rain = 0
KWA1 221431Z 17011KT 19/15 A2999 RMK A01 T01920151  RH  077%=      5-min Rain = 0
KWA1 221432Z 17010KT 19/15 A2999 RMK A01 T01920151  RH  077%=      5-min Rain = 0
KWA1 221433Z 17010KT 19/15 A2999 RMK A01 T01920151  RH  077%=      5-min Rain = 0
KWA1 221434Z 18014KT 19/15 A2999 RMK A01 T01930152  RH  077%=      5-min Rain = 0
KWA1 221435Z 17012KT 19/15 A2999 RMK A01 T01930151  RH  076%=      5-min Rain = 0
KWA1 221436Z 17012KT 19/15 A2999 RMK A01 T01940151  RH  076%=      5-min Rain = 0
KWA1 221437Z 16011KT 19/15 A2999 RMK A01 T01940152  RH  076%=      5-min Rain = 0
KWA1 221438Z 16011KT 19/15 A2999 RMK A01 T01940152  RH  077%=      5-min Rain = 0
KWA1 221439Z 17010KT 19/15 A2999 RMK A01 T01940152  RH  077%=      5-min Rain = 0
KWA1 221440Z 16011KT 20/15 A2999 RMK A01 T01950152  RH  076%=      5-min Rain = 0
KWA1 221441Z 16011KT 20/15 A2999 RMK A01 T01950152  RH  076%=      5-min Rain = 0
KWA1 221442Z 17010KT 20/15 A2999 RMK A01 T01950152  RH  076%=      5-min Rain = 0
KWA1 221443Z 19009KT 20/15 A2999 RMK A01 T01950152  RH  076%=      5-min Rain = 0
KWA1 221444Z 18010KT 20/15 A2999 RMK A01 T01950152  RH  076%=      5-min Rain = 0
KWA1 221445Z 18010KT 20/15 A2999 RMK A01 T01960152  RH  076%=      5-min Rain = 0
KWA1 221446Z 17009KT 20/15 A2999 RMK A01 T01970153  RH  076%=      5-min Rain = 0
KWA1 221447Z 17010KT 20/16 A30 RMK A01 T01990155  RH  076%=      5-min Rain = 0
KWA1 221448Z 18011KT 20/15 A30 RMK A01 T01990152  RH  074%=      5-min Rain = 0
KWA1 221449Z 19012KT 20/15 A30 RMK A01 T01990153  RH  075%=      5-min Rain = 0
KWA1 221450Z 18010KT 20/15 A30 RMK A01 T01990153  RH  074%=      5-min Rain = 0
KWA1 221451Z 17009KT 20/15 A30 RMK A01 T01990153  RH  075%=      5-min Rain = 0
KWA1 221452Z 17010KT 20/15 A30 RMK A01 T02000153  RH  074%=      5-min Rain = 0
KWA1 221453Z 17011KT 20/15 A30 RMK A01 T02000153  RH  074%=      5-min Rain = 0
KWA1 221454Z 18011KT 20/15 A30 RMK A01 T02000153  RH  074%=      5-min Rain = 0
KWA1 221455Z 19008KT 20/15 A30 RMK A01 T02000152  RH  074%=      5-min Rain = 0
KWA1 221456Z 19008KT 20/15 A30 RMK A01 T02000153  RH  074%=      5-min Rain = 0
KWA1 221457Z 19009KT 20/15 A30 RMK A01 T02000153  RH  074%=      5-min Rain = 0
KWA1 221458Z 17009KT 20/15 A30 RMK A01 T02010154  RH  074%=      5-min Rain = 0
KWA1 221459Z 17011KT 20/15 A30 RMK A01 T02020153  RH  073%=      5-min Rain = 0
KWA1 221500Z 17010KT 20/15 A30 RMK A01 T02020153  RH  073%=      5-min Rain = 0
KWA1 221501Z 17009KT 20/15 A30 RMK A01 T02040154  RH  073%=      5-min Rain = 0
KWA1 221502Z 18009KT 21/15 A30 RMK A01 T02050153  RH  072%=      5-min Rain = 0
KWA1 221503Z 18008KT 20/15 A30 RMK A01 T02040153  RH  072%=      5-min Rain = 0
KWA1 221504Z 18008KT 20/15 A30 RMK A01 T02040153  RH  073%=      5-min Rain = 0
KWA1 221505Z 17009KT 20/15 A30 RMK A01 T02030153  RH  073%=      5-min Rain = 0
KWA1 221506Z 17009KT 21/16 A30 RMK A01 T02050156  RH  073%=      5-min Rain = 0
KWA1 221507Z 15009KT 21/15 A30 RMK A01 T02070154  RH  072%=      5-min Rain = 0
KWA1 221508Z 16010KT 21/16 A30 RMK A01 T02070156  RH  073%=      5-min Rain = 0
KWA1 221509Z 16009KT 21/15 A30 RMK A01 T02090154  RH  071%=      5-min Rain = 0
KWA1 221510Z 15011KT 21/15 A30 RMK A01 T02090154  RH  071%=      5-min Rain = 0
KWA1 221511Z 15010KT 21/15 A30 RMK A01 T02090154  RH  071%=      5-min Rain = 0
KWA1 221512Z 16008KT 21/15 A30 RMK A01 T02080154  RH  071%=      5-min Rain = 0
KWA1 221513Z 15009KT 21/15 A30 RMK A01 T02080154  RH  071%=      5-min Rain = 0
KWA1 221514Z 17011KT 21/16 A30 RMK A01 T02080155  RH  072%=      5-min Rain = 0
KWA1 221515Z 17009KT 21/15 A30 RMK A01 T02090154  RH  071%=      5-min Rain = 0
KWA1 221516Z 17009KT 21/16 A30 RMK A01 T02100155  RH  071%=      5-min Rain = 0
KWA1 221517Z 17009KT 21/16 A30 RMK A01 T02120157  RH  071%=      5-min Rain = 0
KWA1 221518Z 16007KT 21/16 A30 RMK A01 T02120155  RH  070%=      5-min Rain = 0
KWA1 221519Z 16009KT 21/16 A30 RMK A01 T02120156  RH  070%=      5-min Rain = 0
KWA1 221520Z 16009KT 21/16 A30 RMK A01 T02130155  RH  069%=      5-min Rain = 0
KWA1 221521Z 16010KT 21/16 A30 RMK A01 T02130155  RH  070%=      5-min Rain = 0
KWA1 221522Z 17010KT 21/16 A30 RMK A01 T02130155  RH  069%=      5-min Rain = 0
KWA1 221523Z 17010KT 21/16 A30 RMK A01 T02140155  RH  069%=      5-min Rain = 0
KWA1 221524Z 16009KT 22/16 A30 RMK A01 T02150155  RH  069%=      5-min Rain = 0
KWA1 221525Z 16010KT 22/16 A30 RMK A01 T02150155  RH  069%=      5-min Rain = 0
KWA1 221526Z 16007KT 22/16 A30 RMK A01 T02150155  RH  069%=      5-min Rain = 0
KWA1 221527Z 15004KT 21/15 A30 RMK A01 T02140154  RH  069%=      5-min Rain = 0
KWA1 221528Z 18008KT 21/16 A30 RMK A01 T02140157  RH  070%=      5-min Rain = 0
KWA1 221529Z 17008KT 22/16 A30 RMK A01 T02150155  RH  069%=      5-min Rain = 0
KWA1 221530Z 18007KT 22/16 A30 RMK A01 T02160157  RH  069%=      5-min Rain = 0
KWA1 221531Z 16005KT 22/16 A30 RMK A01 T02170158  RH  069%=      5-min Rain = 0
KWA1 221532Z 16008KT 22/16 A30 RMK A01 T02170155  RH  068%=      5-min Rain = 0
KWA1 221533Z 17005KT 22/16 A30 RMK A01 T02180156  RH  068%=      5-min Rain = 0
KWA1 221534Z 18004KT 22/16 A30 RMK A01 T02170156  RH  068%=      5-min Rain = 0
KWA1 221535Z 22005KT 22/16 A30 RMK A01 T02170156  RH  068%=      5-min Rain = 0
KWA1 221536Z 20005KT 22/16 A2999 RMK A01 T02180156  RH  068%=      5-min Rain = 0
KWA1 221537Z 16008KT 22/16 A2999 RMK A01 T02180156  RH  068%=      5-min Rain = 0
KWA1 221538Z 16009KT 22/16 A2999 RMK A01 T02190156  RH  067%=      5-min Rain = 0
KWA1 221539Z 15010KT 22/16 A2999 RMK A01 T02190156  RH  067%=      5-min Rain = 0
KWA1 221540Z 15009KT 22/16 A2999 RMK A01 T02200155  RH  067%=      5-min Rain = 0
KWA1 221541Z 16009KT 22/16 A2999 RMK A01 T02200156  RH  067%=      5-min Rain = 0
KWA1 221542Z 15009KT 22/16 A2999 RMK A01 T02200155  RH  067%=      5-min Rain = 0
KWA1 221543Z 16011KT 22/16 A2999 RMK A01 T02200156  RH  067%=      5-min Rain = 0
KWA1 221544Z 17010KT 22/16 A2999 RMK A01 T02220157  RH  067%=      5-min Rain = 0
KWA1 221545Z 16010KT 22/16 A2999 RMK A01 T02230156  RH  066%=      5-min Rain = 0
KWA1 221546Z 16010KT 22/16 A2999 RMK A01 T02230155  RH  065%=      5-min Rain = 0
KWA1 221547Z 17009KT 22/16 A2999 RMK A01 T02220156  RH  066%=      5-min Rain = 0
KWA1 221548Z 18010KT 22/15 A2999 RMK A01 T02210154  RH  066%=      5-min Rain = 0
KWA1 221549Z 16010KT 22/16 A2999 RMK A01 T02210155  RH  066%=      5-min Rain = 0
KWA1 221550Z 17008KT 22/16 A2999 RMK A01 T02210155  RH  066%=      5-min Rain = 0
KWA1 221551Z 17007KT 22/15 A2999 RMK A01 T02210153  RH  066%=      5-min Rain = 0
KWA1 221552Z 16011KT 22/16 A2999 RMK A01 T02190155  RH  067%=      5-min Rain = 0
KWA1 221553Z 16011KT 22/16 A2999 RMK A01 T02220156  RH  066%=      5-min Rain = 0
KWA1 221554Z 16006KT 22/16 A2999 RMK A01 T02230156  RH  066%=      5-min Rain = 0
KWA1 221555Z 18010KT 22/16 A2999 RMK A01 T02240155  RH  065%=      5-min Rain = 0
KWA1 221556Z 17010KT 22/15 A2999 RMK A01 T02230154  RH  065%=      5-min Rain = 0
KWA1 221557Z 17011KT 22/16 A2999 RMK A01 T02240156  RH  065%=      5-min Rain = 0
KWA1 221558Z 18011KT 23/16 A2999 RMK A01 T02260155  RH  064%=      5-min Rain = 0
KWA1 221559Z 18009KT 23/15 A30 RMK A01 T02260154  RH  064%=      5-min Rain = 0
KWA1 221600Z 18007KT 22/15 A30 RMK A01 T02240153  RH  064%=      5-min Rain = 0
KWA1 221601Z 18009KT 22/16 A30 RMK A01 T02230155  RH  065%=      5-min Rain = 0
KWA1 221602Z 15009KT 23/16 A30 RMK A01 T02250155  RH  065%=      5-min Rain = 0
KWA1 221603Z 16009KT 23/16 A30 RMK A01 T02260156  RH  065%=      5-min Rain = 0
KWA1 221604Z 16010KT 23/16 A30 RMK A01 T02280156  RH  064%=      5-min Rain = 0
KWA1 221605Z 16009KT 23/16 A30 RMK A01 T02290155  RH  063%=      5-min Rain = 0
KWA1 221606Z 19010KT 23/16 A30 RMK A01 T02290155  RH  063%=      5-min Rain = 0
KWA1 221607Z 15009KT 23/15 A30 RMK A01 T02280154  RH  063%=      5-min Rain = 0
KWA1 221608Z 14008KT 23/16 A30 RMK A01 T02270155  RH  064%=      5-min Rain = 0
KWA1 221609Z 14010KT 23/16 A30 RMK A01 T02270155  RH  064%=      5-min Rain = 0
KWA1 221610Z 14009KT 23/16 A30 RMK A01 T02270155  RH  064%=      5-min Rain = 0
KWA1 221611Z 13010KT 23/16 A30 RMK A01 T02280155  RH  064%=      5-min Rain = 0
KWA1 221612Z 13007KT 23/16 A30 RMK A01 T02270155  RH  064%=      5-min Rain = 0
KWA1 221613Z 13005KT 23/15 A30 RMK A01 T02250154  RH  064%=      5-min Rain = 0
KWA1 221614Z 17005KT 22/16 A30 RMK A01 T02240155  RH  065%=      5-min Rain = 0
KWA1 221615Z 17008KT 23/16 A30 RMK A01 T02250155  RH  065%=      5-min Rain = 0
KWA1 221616Z 17009KT 23/16 A30 RMK A01 T02260155  RH  064%=      5-min Rain = 0
KWA1 221617Z 15010KT 23/16 A30 RMK A01 T02280156  RH  064%=      5-min Rain = 0
KWA1 221618Z 15010KT 23/16 A30 RMK A01 T02270155  RH  063%=      5-min Rain = 0
KWA1 221619Z 14009KT 23/16 A30 RMK A01 T02280155  RH  064%=      5-min Rain = 0
KWA1 221620Z 15009KT 23/16 A30 RMK A01 T02290155  RH  063%=      5-min Rain = 0
KWA1 221621Z 18008KT 23/16 A30 RMK A01 T02300156  RH  063%=      5-min Rain = 0
KWA1 221622Z 18008KT 23/15 A30 RMK A01 T02300154  RH  062%=      5-min Rain = 0
KWA1 221623Z 16011KT 23/16 A30 RMK A01 T02300155  RH  063%=      5-min Rain = 0
KWA1 221624Z 16010KT 23/16 A30 RMK A01 T02330155  RH  061%=      5-min Rain = 0
KWA1 221625Z 16008KT 23/16 A30 RMK A01 T02330155  RH  061%=      5-min Rain = 0
KWA1 221626Z 16010KT 23/16 A30 RMK A01 T02340156  RH  062%=      5-min Rain = 0
KWA1 221627Z 16012KT 24/16 A30 RMK A01 T02350155  RH  061%=      5-min Rain = 0
KWA1 221628Z 16010KT 23/16 A30 RMK A01 T02330155  RH  062%=      5-min Rain = 0
KWA1 221629Z 16008KT 23/15 A30 RMK A01 T02310154  RH  062%=      5-min Rain = 0
KWA1 221630Z 17010KT 23/16 A30 RMK A01 T02300155  RH  063%=      5-min Rain = 0
KWA1 221631Z 17009KT 23/16 A30 RMK A01 T02310155  RH  063%=      5-min Rain = 0
KWA1 221632Z 16010KT 23/16 A30 RMK A01 T02310155  RH  062%=      5-min Rain = 0
KWA1 221633Z 17011KT 23/16 A30 RMK A01 T02330156  RH  062%=      5-min Rain = 0
KWA1 221634Z 18010KT 23/16 A30 RMK A01 T02340156  RH  062%=      5-min Rain = 0
KWA1 221635Z 19012KT 23/16 A30 RMK A01 T02340155  RH  061%=      5-min Rain = 0
KWA1 221636Z 18011KT 23/16 A30 RMK A01 T02330155  RH  061%=      5-min Rain = 0
KWA1 221637Z 15009KT 23/16 A30 RMK A01 T02310155  RH  062%=      5-min Rain = 0
KWA1 221638Z 16009KT 23/16 A30 RMK A01 T02320156  RH  062%=      5-min Rain = 0
KWA1 221639Z 15009KT 23/16 A30 RMK A01 T02320156  RH  062%=      5-min Rain = 0
KWA1 221640Z 15010KT 23/16 A30 RMK A01 T02320157  RH  063%=      5-min Rain = 0
KWA1 221641Z 16011KT 23/16 A30 RMK A01 T02330156  RH  062%=      5-min Rain = 0
KWA1 221642Z 16010KT 23/16 A30 RMK A01 T02340156  RH  062%=      5-min Rain = 0
KWA1 221643Z 17011KT 24/16 A30 RMK A01 T02350157  RH  062%=      5-min Rain = 0
KWA1 221644Z 17010KT 23/15 A30 RMK A01 T02340154  RH  061%=      5-min Rain = 0
KWA1 221645Z 17010KT 23/16 A30 RMK A01 T02330155  RH  061%=      5-min Rain = 0
KWA1 221646Z 17011KT 23/15 A30 RMK A01 T02320154  RH  062%=      5-min Rain = 0
KWA1 221647Z 16010KT 23/16 A30 RMK A01 T02320155  RH  062%=      5-min Rain = 0
KWA1 221648Z 18009KT 23/15 A30 RMK A01 T02320153  RH  061%=      5-min Rain = 0
KWA1 221649Z 17011KT 23/15 A30 RMK A01 T02310154  RH  062%=      5-min Rain = 0
KWA1 221650Z 15012KT 23/15 A30 RMK A01 T02320153  RH  061%=      5-min Rain = 0
KWA1 221651Z 17013KT 23/15 A30 RMK A01 T02330154  RH  061%=      5-min Rain = 0
KWA1 221652Z 17013KT 23/16 A30 RMK A01 T02340155  RH  061%=      5-min Rain = 0
KWA1 221653Z 16014KT 24/15 A30 RMK A01 T02350154  RH  060%=      5-min Rain = 0
KWA1 221654Z 17011KT 23/15 A30 RMK A01 T02330154  RH  061%=      5-min Rain = 0
KWA1 221655Z 16012KT 23/15 A30 RMK A01 T02320154  RH  062%=      5-min Rain = 0
KWA1 221656Z 15012KT 23/15 A30 RMK A01 T02320153  RH  061%=      5-min Rain = 0
KWA1 221657Z 15011KT 23/15 A30 RMK A01 T02320153  RH  061%=      5-min Rain = 0
KWA1 221658Z 16013KT 23/15 A30 RMK A01 T02320154  RH  061%=      5-min Rain = 0
KWA1 221659Z 18011KT 23/15 A30 RMK A01 T02320153  RH  061%=      5-min Rain = 0
KWA1 221700Z 18013KT 23/15 A30 RMK A01 T02320153  RH  061%=      5-min Rain = 0
KWA1 221701Z 18012KT 23/15 A30 RMK A01 T02330153  RH  061%=      5-min Rain = 0
KWA1 221702Z 18010KT 23/15 A30 RMK A01 T02340153  RH  060%=      5-min Rain = 0
KWA1 221703Z 17009KT 23/15 A30 RMK A01 T02320153  RH  061%=      5-min Rain = 0
KWA1 221704Z 16011KT 23/15 A30 RMK A01 T02310153  RH  061%=      5-min Rain = 0
KWA1 221705Z 16010KT 23/16 A30 RMK A01 T02320155  RH  062%=      5-min Rain = 0
KWA1 221706Z 17009KT 23/16 A30 RMK A01 T02340155  RH  061%=      5-min Rain = 0
KWA1 221707Z 16009KT 23/15 A30 RMK A01 T02340154  RH  061%=      5-min Rain = 0
KWA1 221708Z 16012G17KT 23/16 A30 RMK A01 T02330155  RH  062%=      5-min Rain = 0
KWA1 221709Z 16013KT 23/16 A30 RMK A01 T02340155  RH  061%=      5-min Rain = 0
KWA1 221710Z 17012KT 24/16 A30 RMK A01 T02360155  RH  060%=      5-min Rain = 0
KWA1 221711Z 17011KT 23/15 A30 RMK A01 T02340153  RH  060%=      5-min Rain = 0
KWA1 221712Z 17012KT 23/15 A30 RMK A01 T02330153  RH  061%=      5-min Rain = 0
KWA1 221713Z 16012KT 23/15 A30 RMK A01 T02330153  RH  061%=      5-min Rain = 0
KWA1 221714Z 16012KT 23/15 A30 RMK A01 T02330154  RH  061%=      5-min Rain = 0
KWA1 221715Z 17013KT 23/15 A30 RMK A01 T02330153  RH  061%=      5-min Rain = 0
KWA1 221716Z 17009KT 23/15 A30 RMK A01 T02320153  RH  061%=      5-min Rain = 0
KWA1 221717Z 17010KT 23/15 A30 RMK A01 T02310153  RH  061%=      5-min Rain = 0
KWA1 221718Z 17010KT 23/15 A30 RMK A01 T02330154  RH  061%=      5-min Rain = 0
KWA1 221719Z 17009KT 23/15 A30 RMK A01 T02340153  RH  060%=      5-min Rain = 0
KWA1 221720Z 18008KT 23/15 A30 RMK A01 T02330153  RH  061%=      5-min Rain = 0
KWA1 221721Z 18010KT 23/15 A30 RMK A01 T02330154  RH  061%=      5-min Rain = 0
KWA1 221722Z 17010KT 23/15 A30 RMK A01 T02320153  RH  061%=      5-min Rain = 0
KWA1 221723Z 16011KT 23/15 A30 RMK A01 T02320153  RH  061%=      5-min Rain = 0
KWA1 221724Z 15012KT 23/15 A30 RMK A01 T02340152  RH  060%=      5-min Rain = 0
KWA1 221725Z 15009KT 23/15 A30 RMK A01 T02340152  RH  060%=      5-min Rain = 0
KWA1 221726Z 16011KT 23/15 A30 RMK A01 T02340153  RH  060%=      5-min Rain = 0
KWA1 221727Z 16011KT 24/15 A30 RMK A01 T02350153  RH  060%=      5-min Rain = 0
KWA1 221728Z 15011KT 24/15 A30 RMK A01 T02350153  RH  060%=      5-min Rain = 0
KWA1 221729Z 17009KT 24/15 A30 RMK A01 T02360154  RH  060%=      5-min Rain = 0
KWA1 221730Z 15009KT 23/15 A30 RMK A01 T02340152  RH  060%=      5-min Rain = 0
KWA1 221731Z 15012KT 23/15 A30 RMK A01 T02340154  RH  061%=      5-min Rain = 0
KWA1 221732Z 15011KT 24/16 A30 RMK A01 T02360155  RH  060%=      5-min Rain = 0
KWA1 221733Z 16013KT 24/15 A30 RMK A01 T02370154  RH  060%=      5-min Rain = 0
KWA1 221734Z 17012KT 24/15 A30 RMK A01 T02370154  RH  060%=      5-min Rain = 0
KWA1 221735Z 17010KT 24/15 A30 RMK A01 T02370153  RH  059%=      5-min Rain = 0
KWA1 221736Z 17010G17KT 24/15 A30 RMK A01 T02350153  RH  060%=      5-min Rain = 0
KWA1 221737Z 15011KT 24/15 A30 RMK A01 T02370154  RH  060%=      5-min Rain = 0
KWA1 221738Z 16013KT 24/15 A30 RMK A01 T02390153  RH  059%=      5-min Rain = 0
KWA1 221739Z 15013KT 24/15 A30 RMK A01 T02380153  RH  059%=      5-min Rain = 0
KWA1 221740Z 15013KT 24/15 A30 RMK A01 T02380153  RH  059%=      5-min Rain = 0
KWA1 221741Z 16013KT 24/15 A30 RMK A01 T02380152  RH  059%=      5-min Rain = 0
KWA1 221742Z 18013KT 24/15 A2999 RMK A01 T02380152  RH  058%=      5-min Rain = 0
KWA1 221743Z 18011KT 24/15 A2999 RMK A01 T02380152  RH  058%=      5-min Rain = 0
KWA1 221744Z 17012KT 24/15 A2999 RMK A01 T02380151  RH  058%=      5-min Rain = 0
KWA1 221745Z 17010KT 24/15 A2999 RMK A01 T02350150  RH  059%=      5-min Rain = 0
KWA1 221746Z 17010KT 24/15 A2999 RMK A01 T02350152  RH  059%=      5-min Rain = 0
KWA1 221747Z 19008KT 24/15 A2999 RMK A01 T02370152  RH  059%=      5-min Rain = 0
KWA1 221748Z 17009KT 24/15 A2999 RMK A01 T02370153  RH  059%=      5-min Rain = 0
KWA1 221749Z 16013KT 24/15 A2999 RMK A01 T02390152  RH  058%=      5-min Rain = 0
KWA1 221750Z 15013KT 24/15 A30 RMK A01 T02400152  RH  058%=      5-min Rain = 0
KWA1 221751Z 17011KT 24/15 A30 RMK A01 T02400153  RH  058%=      5-min Rain = 0
KWA1 221752Z 17011KT 24/15 A30 RMK A01 T02390151  RH  058%=      5-min Rain = 0
KWA1 221753Z 18010KT 24/15 A2999 RMK A01 T02380152  RH  059%=      5-min Rain = 0
KWA1 221754Z 16013KT 24/15 A2999 RMK A01 T02380152  RH  059%=      5-min Rain = 0
KWA1 221755Z 15010KT 24/15 A2999 RMK A01 T02380153  RH  059%=      5-min Rain = 0
KWA1 221756Z 14010KT 24/15 A2999 RMK A01 T02380153  RH  059%=      5-min Rain = 0
KWA1 221757Z 15008KT 24/15 A2999 RMK A01 T02380152  RH  059%=      5-min Rain = 0
KWA1 221758Z 17010KT 24/15 A2999 RMK A01 T02370152  RH  059%=      5-min Rain = 0
KWA1 221759Z 17010KT 24/15 A2999 RMK A01 T02360152  RH  059%=      5-min Rain = 0
KWA1 221800Z 16009KT 24/15 A2999 RMK A01 T02380152  RH  059%=      5-min Rain = 0
KWA1 221801Z 17012KT 24/15 A2999 RMK A01 T02380152  RH  059%=      5-min Rain = 0
KWA1 221802Z 16012KT 24/15 A2999 RMK A01 T02370153  RH  059%=      5-min Rain = 0
KWA1 221803Z 15010KT 24/15 A2999 RMK A01 T02380152  RH  059%=      5-min Rain = 0
KWA1 221804Z 17009KT 24/15 A2999 RMK A01 T02370152  RH  059%=      5-min Rain = 0
KWA1 221805Z 14008KT 24/15 A2999 RMK A01 T02350152  RH  060%=      5-min Rain = 0
KWA1 221806Z 13009KT 24/15 A2999 RMK A01 T02350152  RH  060%=      5-min Rain = 0
KWA1 221807Z 14011KT 24/15 A2999 RMK A01 T02350151  RH  059%=      5-min Rain = 0
KWA1 221808Z 16014KT 24/15 A2999 RMK A01 T02360152  RH  059%=      5-min Rain = 0
KWA1 221809Z 17010KT 24/15 A2999 RMK A01 T02370152  RH  059%=      5-min Rain = 0
KWA1 221810Z 15012KT 24/15 A2999 RMK A01 T02370153  RH  059%=      5-min Rain = 0
KWA1 221811Z 15012KT 24/15 A2999 RMK A01 T02390153  RH  058%=      5-min Rain = 0
KWA1 221812Z 14010KT 24/15 A2999 RMK A01 T02390153  RH  058%=      5-min Rain = 0
KWA1 221813Z 14009KT 24/15 A2999 RMK A01 T02380151  RH  058%=      5-min Rain = 0
KWA1 221814Z 13010KT 24/15 A2999 RMK A01 T02370153  RH  059%=      5-min Rain = 0
KWA1 221815Z 14010KT 24/15 A2999 RMK A01 T02390153  RH  058%=      5-min Rain = 0
KWA1 221816Z 13009KT 24/15 A2999 RMK A01 T02390152  RH  058%=      5-min Rain = 0
KWA1 221817Z 13013KT 24/15 A2999 RMK A01 T02400153  RH  058%=      5-min Rain = 0
KWA1 221818Z 14014KT 24/15 A2999 RMK A01 T02410152  RH  057%=      5-min Rain = 0
KWA1 221819Z 14013KT 24/15 A2999 RMK A01 T02390152  RH  058%=      5-min Rain = 0
KWA1 221820Z 14011KT 24/15 A2999 RMK A01 T02380151  RH  058%=      5-min Rain = 0
KWA1 221821Z 14011KT 24/15 A2999 RMK A01 T02380151  RH  058%=      5-min Rain = 0
KWA1 221822Z 15010KT 24/15 A2999 RMK A01 T02380152  RH  059%=      5-min Rain = 0
KWA1 221823Z 14010KT 24/15 A2999 RMK A01 T02400153  RH  058%=      5-min Rain = 0
KWA1 221824Z 15010KT 24/15 A2999 RMK A01 T02410152  RH  058%=      5-min Rain = 0
KWA1 221825Z 15011KT 24/15 A2999 RMK A01 T02400153  RH  058%=      5-min Rain = 0
KWA1 221826Z 15010KT 24/15 A2999 RMK A01 T02420154  RH  058%=      5-min Rain = 0
KWA1 221827Z 16009KT 24/15 A2999 RMK A01 T02420154  RH  058%=      5-min Rain = 0
KWA1 221828Z 15010KT 24/15 A2999 RMK A01 T02430153  RH  057%=      5-min Rain = 0
KWA1 221829Z 14007KT 24/15 A2999 RMK A01 T02430153  RH  057%=      5-min Rain = 0
KWA1 221830Z 13009KT 24/15 A2999 RMK A01 T02420152  RH  057%=      5-min Rain = 0
KWA1 221831Z 14012KT 24/15 A2999 RMK A01 T02420152  RH  057%=      5-min Rain = 0
KWA1 221832Z 15010KT 24/15 A2999 RMK A01 T02420151  RH  057%=      5-min Rain = 0
KWA1 221833Z 14013KT 24/15 A2999 RMK A01 T02410151  RH  057%=      5-min Rain = 0
KWA1 221834Z 15010KT 24/15 A2999 RMK A01 T02400149  RH  057%=      5-min Rain = 0
KWA1 221835Z 15008KT 24/15 A2999 RMK A01 T02380150  RH  058%=      5-min Rain = 0
KWA1 221836Z 14008KT 24/15 A2999 RMK A01 T02380151  RH  058%=      5-min Rain = 0
KWA1 221837Z 14009KT 24/15 A2999 RMK A01 T02390150  RH  058%=      5-min Rain = 0
KWA1 221838Z 15009KT 24/15 A2999 RMK A01 T02390150  RH  057%=      5-min Rain = 0
KWA1 221839Z 16006KT 24/15 A2999 RMK A01 T02400151  RH  058%=      5-min Rain = 0
KWA1 221840Z 16005KT 24/15 A2999 RMK A01 T02390150  RH  057%=      5-min Rain = 0
KWA1 221841Z 13007KT 24/15 A30 RMK A01 T02380150  RH  058%=      5-min Rain = 0
KWA1 221842Z 14007KT 24/15 A30 RMK A01 T02380150  RH  058%=      5-min Rain = 0
KWA1 221843Z 15005KT 24/15 A30 RMK A01 T02390150  RH  057%=      5-min Rain = 0
KWA1 221844Z 12005KT 24/15 A30 RMK A01 T02390151  RH  058%=      5-min Rain = 0
KWA1 221845Z 09005KT 24/15 A30 RMK A01 T02390151  RH  058%=      5-min Rain = 0
KWA1 221846Z 11007KT 24/15 A30 RMK A01 T02410154  RH  058%=      5-min Rain = 0
KWA1 221847Z 11006KT 24/15 A30 RMK A01 T02420153  RH  057%=      5-min Rain = 0
KWA1 221848Z 09009KT 24/15 A30 RMK A01 T02420152  RH  057%=      5-min Rain = 0
KWA1 221849Z 12012KT 24/15 A30 RMK A01 T02420152  RH  057%=      5-min Rain = 0
KWA1 221850Z 16007KT 24/15 A30 RMK A01 T02440153  RH  057%=      5-min Rain = 0
KWA1 221851Z 14008KT 24/15 A30 RMK A01 T02440152  RH  056%=      5-min Rain = 0
KWA1 221852Z 13009KT 24/15 A30 RMK A01 T02440153  RH  057%=      5-min Rain = 0
KWA1 221853Z 15006KT 24/15 A30 RMK A01 T02430151  RH  057%=      5-min Rain = 0
KWA1 221854Z 16008KT 24/15 A30 RMK A01 T02420153  RH  057%=      5-min Rain = 0
KWA1 221855Z 16007KT 24/15 A30 RMK A01 T02410150  RH  057%=      5-min Rain = 0
KWA1 221856Z 15007KT 24/15 A30 RMK A01 T02390152  RH  058%=      5-min Rain = 0
KWA1 221857Z 14005KT 24/15 A30 RMK A01 T02390151  RH  058%=      5-min Rain = 0
KWA1 221858Z 11005KT 24/15 A2999 RMK A01 T02390151  RH  058%=      5-min Rain = 0
KWA1 221859Z 11005KT 24/15 A2999 RMK A01 T02390152  RH  058%=      5-min Rain = 0
KWA1 221900Z 11006KT 24/15 A2999 RMK A01 T02390151  RH  058%=      5-min Rain = 0
KWA1 221901Z 14006KT 24/15 A2999 RMK A01 T02390152  RH  058%=      5-min Rain = 0
KWA1 221902Z 16010KT 24/15 A2999 RMK A01 T02400152  RH  058%=      5-min Rain = 0
KWA1 221903Z 16010KT 24/15 A2999 RMK A01 T02420152  RH  057%=      5-min Rain = 0
KWA1 221904Z 16010KT 24/15 A2999 RMK A01 T02420152  RH  057%=      5-min Rain = 0
KWA1 221905Z 16011KT 24/15 A2999 RMK A01 T02430153  RH  057%=      5-min Rain = 0
KWA1 221906Z 15012KT 25/15 A2999 RMK A01 T02460153  RH  056%=      5-min Rain = 0
KWA1 221907Z 15010KT 25/15 A2999 RMK A01 T02470152  RH  056%=      5-min Rain = 0
KWA1 221908Z 15011KT 25/15 A2999 RMK A01 T02460151  RH  055%=      5-min Rain = 0
KWA1 221909Z 16010KT 25/15 A2999 RMK A01 T02450151  RH  056%=      5-min Rain = 0
KWA1 221910Z 15013KT 25/15 A2999 RMK A01 T02460152  RH  056%=      5-min Rain = 0
KWA1 221911Z 16010KT 25/15 A30 RMK A01 T02460152  RH  056%=      5-min Rain = 0
KWA1 221912Z 16010KT 25/15 A30 RMK A01 T02450151  RH  056%=      5-min Rain = 0
KWA1 221913Z 16012KT 25/15 A30 RMK A01 T02450152  RH  056%=      5-min Rain = 0
KWA1 221914Z 15012KT 25/15 A2999 RMK A01 T02450151  RH  056%=      5-min Rain = 0
KWA1 221915Z 15011KT 25/15 A2999 RMK A01 T02450150  RH  055%=      5-min Rain = 0
KWA1 221916Z 17011KT 25/15 A2999 RMK A01 T02450151  RH  056%=      5-min Rain = 0
KWA1 221917Z 16012KT 25/15 A2999 RMK A01 T02460150  RH  055%=      5-min Rain = 0
KWA1 221918Z 17011KT 25/15 A30 RMK A01 T02460151  RH  055%=      5-min Rain = 0
KWA1 221919Z 17010KT 25/15 A30 RMK A01 T02470151  RH  055%=      5-min Rain = 0
KWA1 221920Z 16010KT 25/15 A30 RMK A01 T02470153  RH  056%=      5-min Rain = 0
KWA1 221921Z 15010KT 25/15 A30 RMK A01 T02470152  RH  055%=      5-min Rain = 0
KWA1 221922Z 14010KT 25/15 A30 RMK A01 T02450150  RH  055%=      5-min Rain = 0
KWA1 221923Z 14008KT 24/15 A30 RMK A01 T02430150  RH  056%=      5-min Rain = 0
KWA1 221924Z 14008KT 24/15 A30 RMK A01 T02430150  RH  056%=      5-min Rain = 0
KWA1 221925Z 15010KT 24/15 A30 RMK A01 T02420150  RH  056%=      5-min Rain = 0
KWA1 221926Z 16011KT 24/15 A30 RMK A01 T02420150  RH  057%=      5-min Rain = 0
KWA1 221927Z 15012KT 24/15 A30 RMK A01 T02430151  RH  056%=      5-min Rain = 0
KWA1 221928Z 15011KT 24/15 A30 RMK A01 T02440151  RH  056%=      5-min Rain = 0
KWA1 221929Z 15010KT 25/15 A30 RMK A01 T02450152  RH  056%=      5-min Rain = 0
KWA1 221930Z 16009KT 25/15 A30 RMK A01 T02460152  RH  056%=      5-min Rain = 0
KWA1 221931Z 16010KT 25/15 A30 RMK A01 T02470152  RH  056%=      5-min Rain = 0
KWA1 221932Z 16009KT 25/15 A30 RMK A01 T02460152  RH  056%=      5-min Rain = 0
KWA1 221933Z 17009KT 25/15 A30 RMK A01 T02450151  RH  056%=      5-min Rain = 0
KWA1 221934Z 17010KT 25/15 A30 RMK A01 T02460150  RH  055%=      5-min Rain = 0
KWA1 221935Z 17009KT 25/15 A30 RMK A01 T02450150  RH  055%=      5-min Rain = 0
KWA1 221936Z 17009KT 25/15 A30 RMK A01 T02450150  RH  056%=      5-min Rain = 0
KWA1 221937Z 16008KT 25/15 A30 RMK A01 T02460150  RH  055%=      5-min Rain = 0
KWA1 221938Z 17009KT 25/15 A30 RMK A01 T02450151  RH  056%=      5-min Rain = 0
KWA1 221939Z 16008KT 25/15 A30 RMK A01 T02450150  RH  055%=      5-min Rain = 0
KWA1 221940Z 14011KT 24/15 A30 RMK A01 T02440151  RH  056%=      5-min Rain = 0
KWA1 221941Z 13011KT 25/15 A2999 RMK A01 T02450150  RH  056%=      5-min Rain = 0
KWA1 221942Z 13011KT 25/15 A2999 RMK A01 T02450149  RH  055%=      5-min Rain = 0
KWA1 221943Z 13012KT 24/15 A2999 RMK A01 T02430149  RH  056%=      5-min Rain = 0
KWA1 221944Z 15010KT 24/15 A2999 RMK A01 T02430150  RH  056%=      5-min Rain = 0
KWA1 221945Z 14010KT 24/15 A2999 RMK A01 T02430149  RH  056%=      5-min Rain = 0
KWA1 221946Z 15011KT 24/15 A2999 RMK A01 T02420150  RH  056%=      5-min Rain = 0
KWA1 221947Z 17011KT 24/15 A2999 RMK A01 T02440152  RH  056%=      5-min Rain = 0
KWA1 221948Z 17009KT 24/15 A2999 RMK A01 T02440150  RH  056%=      5-min Rain = 0
KWA1 221949Z 16011KT 24/15 A2999 RMK A01 T02440152  RH  057%=      5-min Rain = 0
KWA1 221950Z 15012KT 25/15 A2999 RMK A01 T02450151  RH  056%=      5-min Rain = 0
KWA1 221951Z 14012KT 25/15 A2999 RMK A01 T02450150  RH  055%=      5-min Rain = 0
KWA1 221952Z 16012KT 24/15 A2999 RMK A01 T02440150  RH  056%=      5-min Rain = 0
KWA1 221953Z 16012KT 24/15 A2999 RMK A01 T02440150  RH  056%=      5-min Rain = 0
KWA1 221954Z 16012KT 25/15 A2999 RMK A01 T02450150  RH  056%=      5-min Rain = 0
KWA1 221955Z 16011KT 25/15 A2999 RMK A01 T02450150  RH  055%=      5-min Rain = 0
KWA1 221956Z 17012KT 25/15 A2999 RMK A01 T02450149  RH  055%=      5-min Rain = 0
KWA1 221957Z 17010KT 24/15 A2999 RMK A01 T02440150  RH  056%=      5-min Rain = 0
KWA1 221958Z 17012KT 25/15 A2999 RMK A01 T02460151  RH  055%=      5-min Rain = 0
KWA1 221959Z 17010KT 25/15 A2999 RMK A01 T02450150  RH  055%=      5-min Rain = 0
KWA1 222000Z 17009KT 25/15 A2999 RMK A01 T02450150  RH  056%=      5-min Rain = 0
KWA1 222001Z 16011KT 25/15 A2999 RMK A01 T02450151  RH  056%=      5-min Rain = 0
KWA1 222002Z 14011KT 25/15 A2999 RMK A01 T02460151  RH  055%=      5-min Rain = 0
KWA1 222003Z 14011KT 25/15 A2999 RMK A01 T02450151  RH  056%=      5-min Rain = 0
KWA1 222004Z 14011KT 24/15 A2999 RMK A01 T02440150  RH  056%=      5-min Rain = 0
KWA1 222005Z 14010KT 24/15 A2999 RMK A01 T02430150  RH  056%=      5-min Rain = 0
KWA1 222006Z 16010KT 24/15 A2999 RMK A01 T02430150  RH  056%=      5-min Rain = 0
KWA1 222007Z 15009KT 24/15 A2999 RMK A01 T02440150  RH  056%=      5-min Rain = 0
KWA1 222008Z 14008KT 24/15 A2999 RMK A01 T02440151  RH  056%=      5-min Rain = 0
KWA1 222009Z 12010KT 24/15 A2998 RMK A01 T02430151  RH  056%=      5-min Rain = 0
KWA1 222010Z 13011KT 24/15 A2998 RMK A01 T02440151  RH  056%=      5-min Rain = 0
KWA1 222011Z 14011KT 25/15 A2998 RMK A01 T02450152  RH  056%=      5-min Rain = 0
KWA1 222012Z 13009KT 25/15 A2998 RMK A01 T02450151  RH  056%=      5-min Rain = 0
KWA1 222013Z 13012KT 24/15 A2998 RMK A01 T02440151  RH  056%=      5-min Rain = 0
KWA1 222014Z 12012KT 24/15 A2998 RMK A01 T02440151  RH  056%=      5-min Rain = 0
KWA1 222015Z 12011KT 24/15 A2998 RMK A01 T02440150  RH  056%=      5-min Rain = 0
KWA1 222016Z 12010KT 24/15 A2998 RMK A01 T02430150  RH  056%=      5-min Rain = 0
KWA1 222017Z 11008KT 24/15 A2998 RMK A01 T02420151  RH  057%=      5-min Rain = 0
KWA1 222018Z 12008KT 24/15 A2998 RMK A01 T02420151  RH  057%=      5-min Rain = 0
KWA1 222019Z 12007KT 24/15 A2998 RMK A01 T02420152  RH  057%=      5-min Rain = 0
KWA1 222020Z 12010KT 24/15 A2998 RMK A01 T02430152  RH  057%=      5-min Rain = 0
KWA1 222021Z 13011KT 24/15 A2998 RMK A01 T02440152  RH  056%=      5-min Rain = 0
KWA1 222022Z 13010KT 24/15 A2998 RMK A01 T02440152  RH  056%=      5-min Rain = 0
KWA1 222023Z 12010KT 24/15 A2998 RMK A01 T02440151  RH  056%=      5-min Rain = 0
KWA1 222024Z 12010KT 24/15 A2998 RMK A01 T02440152  RH  057%=      5-min Rain = 0
KWA1 222025Z 12011KT 24/15 A2998 RMK A01 T02440151  RH  056%=      5-min Rain = 0
KWA1 222026Z 13011KT 24/15 A2998 RMK A01 T02440151  RH  056%=      5-min Rain = 0
KWA1 222027Z 15010KT 24/15 A2998 RMK A01 T02430151  RH  057%=      5-min Rain = 0
KWA1 222028Z 13009KT 24/15 A2998 RMK A01 T02430152  RH  057%=      5-min Rain = 0
KWA1 222029Z 13010KT 24/15 A2998 RMK A01 T02440151  RH  056%=      5-min Rain = 0
KWA1 222030Z 13012KT 24/15 A2998 RMK A01 T02440151  RH  056%=      5-min Rain = 0
KWA1 222031Z 14012KT 24/15 A2998 RMK A01 T02430151  RH  056%=      5-min Rain = 0
KWA1 222032Z 13010KT 24/15 A2998 RMK A01 T02440152  RH  056%=      5-min Rain = 0
KWA1 222033Z 14010KT 25/15 A2998 RMK A01 T02450151  RH  056%=      5-min Rain = 0
KWA1 222034Z 14009KT 24/15 A2998 RMK A01 T02430150  RH  056%=      5-min Rain = 0
KWA1 222035Z 14011KT 24/15 A2998 RMK A01 T02430152  RH  057%=      5-min Rain = 0
KWA1 222036Z 13010KT 24/15 A2997 RMK A01 T02430151  RH  056%=      5-min Rain = 0
KWA1 222037Z 14008KT 24/15 A2997 RMK A01 T02430150  RH  056%=      5-min Rain = 0
KWA1 222038Z 14009KT 24/15 A2997 RMK A01 T02430151  RH  056%=      5-min Rain = 0
KWA1 222039Z 13011KT 24/15 A2997 RMK A01 T02440150  RH  056%=      5-min Rain = 0
KWA1 222040Z 12010KT 25/15 A2997 RMK A01 T02450151  RH  056%=      5-min Rain = 0
KWA1 222041Z 12009KT 25/15 A2997 RMK A01 T02460150  RH  055%=      5-min Rain = 0
KWA1 222042Z 13013KT 25/15 A2997 RMK A01 T02450150  RH  055%=      5-min Rain = 0
KWA1 222043Z 13012KT 25/15 A2997 RMK A01 T02450150  RH  055%=      5-min Rain = 0
KWA1 222044Z 12010KT 25/15 A2997 RMK A01 T02460150  RH  055%=      5-min Rain = 0
KWA1 222045Z 11010KT 25/15 A2997 RMK A01 T02460149  RH  055%=      5-min Rain = 0
KWA1 222046Z 12011KT 25/15 A2997 RMK A01 T02460149  RH  055%=      5-min Rain = 0
KWA1 222047Z 12011KT 25/15 A2997 RMK A01 T02450150  RH  055%=      5-min Rain = 0
KWA1 222048Z 12012KT 25/15 A2997 RMK A01 T02470149  RH  054%=      5-min Rain = 0
KWA1 222049Z 13012KT 25/15 A2997 RMK A01 T02480148  RH  054%=      5-min Rain = 0
KWA1 222050Z 14010KT 25/15 A2997 RMK A01 T02470147  RH  054%=      5-min Rain = 0
KWA1 222051Z 13006KT 25/15 A2997 RMK A01 T02470148  RH  054%=      5-min Rain = 0
KWA1 222052Z 12012KT 25/15 A2997 RMK A01 T02480151  RH  055%=      5-min Rain = 0
KWA1 222053Z 14009KT 25/15 A2997 RMK A01 T02500149  RH  054%=      5-min Rain = 0
KWA1 222054Z 14011KT 25/15 A2997 RMK A01 T02520153  RH  054%=      5-min Rain = 0
KWA1 222055Z 13011KT 25/15 A2997 RMK A01 T02540150  RH  053%=      5-min Rain = 0
KWA1 222056Z 14009KT 25/15 A2997 RMK A01 T02520150  RH  053%=      5-min Rain = 0
KWA1 222057Z 13008KT 25/15 A2997 RMK A01 T02510150  RH  054%=      5-min Rain = 0
KWA1 222058Z 13009KT 25/15 A2997 RMK A01 T02510149  RH  053%=      5-min Rain = 0
KWA1 222059Z 13008KT 25/15 A2997 RMK A01 T02510149  RH  053%=      5-min Rain = 0
KWA1 222100Z 13010KT 25/15 A2997 RMK A01 T02500149  RH  053%=      5-min Rain = 0
KWA1 222101Z 12009KT 25/15 A2997 RMK A01 T02510148  RH  053%=      5-min Rain = 0
KWA1 222102Z 13009KT 25/15 A2997 RMK A01 T02500147  RH  053%=      5-min Rain = 0
KWA1 222103Z 13012KT 25/15 A2997 RMK A01 T02500146  RH  053%=      5-min Rain = 0
KWA1 222104Z 12011KT 25/15 A2997 RMK A01 T02510146  RH  052%=      5-min Rain = 0
KWA1 222105Z 13008KT 25/14 A2996 RMK A01 T02510144  RH  052%=      5-min Rain = 0
KWA1 222106Z 14009KT 25/15 A2996 RMK A01 T02500145  RH  052%=      5-min Rain = 0
KWA1 222107Z 13007KT 25/15 A2996 RMK A01 T02510145  RH  052%=      5-min Rain = 0
KWA1 222108Z 16006KT 25/15 A2996 RMK A01 T02500145  RH  052%=      5-min Rain = 0
KWA1 222109Z 14008KT 25/15 A2996 RMK A01 T02520148  RH  053%=      5-min Rain = 0
KWA1 222110Z 13012KT 25/15 A2996 RMK A01 T02540146  RH  051%=      5-min Rain = 0
KWA1 222111Z 12009KT 25/14 A2996 RMK A01 T02520142  RH  050%=      5-min Rain = 0
KWA1 222112Z 11008KT 25/14 A2996 RMK A01 T02510142  RH  051%=      5-min Rain = 0
KWA1 222113Z 13007KT 25/14 A2996 RMK A01 T02500142  RH  051%=      5-min Rain = 0
KWA1 222114Z 13009KT 25/14 A2996 RMK A01 T02490141  RH  051%=      5-min Rain = 0
KWA1 222115Z 16010KT 25/14 A2996 RMK A01 T02500143  RH  052%=      5-min Rain = 0
KWA1 222116Z 16009KT 25/14 A2996 RMK A01 T02500143  RH  051%=      5-min Rain = 0
KWA1 222117Z 16010KT 25/14 A2996 RMK A01 T02510142  RH  051%=      5-min Rain = 0
KWA1 222118Z 15007KT 25/14 A2996 RMK A01 T02500142  RH  051%=      5-min Rain = 0
KWA1 222119Z 14007KT 25/14 A2996 RMK A01 T02510142  RH  051%=      5-min Rain = 0
KWA1 222120Z 13008KT 25/14 A2996 RMK A01 T02500140  RH  051%=      5-min Rain = 0
KWA1 222121Z 12009KT 25/14 A2996 RMK A01 T02500142  RH  051%=      5-min Rain = 0
KWA1 222122Z 11008KT 25/14 A2996 RMK A01 T02510142  RH  051%=      5-min Rain = 0
KWA1 222123Z 11010KT 25/14 A2996 RMK A01 T02500140  RH  050%=      5-min Rain = 0
KWA1 222124Z 14008KT 25/14 A2996 RMK A01 T02500140  RH  051%=      5-min Rain = 0
KWA1 222125Z 14007KT 25/14 A2996 RMK A01 T02500141  RH  051%=      5-min Rain = 0
KWA1 222126Z 12007KT 25/14 A2996 RMK A01 T02500140  RH  050%=      5-min Rain = 0
KWA1 222127Z 12007KT 25/14 A2996 RMK A01 T02490140  RH  051%=      5-min Rain = 0
KWA1 222128Z 10007KT 25/14 A2996 RMK A01 T02490139  RH  050%=      5-min Rain = 0
KWA1 222129Z 11006KT 25/14 A2996 RMK A01 T02490140  RH  051%=      5-min Rain = 0
KWA1 222130Z 13008KT 25/14 A2996 RMK A01 T02500140  RH  051%=      5-min Rain = 0
KWA1 222131Z 14007KT 25/14 A2996 RMK A01 T02520139  RH  050%=      5-min Rain = 0
KWA1 222132Z 14008KT 25/14 A2996 RMK A01 T02530140  RH  050%=      5-min Rain = 0
KWA1 222133Z 12008KT 25/14 A2996 RMK A01 T02540140  RH  049%=      5-min Rain = 0
KWA1 222134Z 11008KT 25/14 A2996 RMK A01 T02540139  RH  049%=      5-min Rain = 0
KWA1 222135Z 10007KT 25/14 A2996 RMK A01 T02520139  RH  049%=      5-min Rain = 0
KWA1 222136Z 11006KT 25/14 A2996 RMK A01 T02510137  RH  049%=      5-min Rain = 0
KWA1 222137Z 13008KT 25/14 A2996 RMK A01 T02490137  RH  050%=      5-min Rain = 0
KWA1 222138Z 12006KT 25/14 A2996 RMK A01 T02490136  RH  049%=      5-min Rain = 0
KWA1 222139Z 14008KT 25/14 A2996 RMK A01 T02500138  RH  050%=      5-min Rain = 0
KWA1 222140Z 12008KT 25/14 A2996 RMK A01 T02520139  RH  050%=      5-min Rain = 0
KWA1 222141Z 13010KT 25/14 A2996 RMK A01 T02530138  RH  049%=      5-min Rain = 0
KWA1 222142Z 12010KT 25/14 A2996 RMK A01 T02540138  RH  049%=      5-min Rain = 0
KWA1 222143Z 11008KT 25/14 A2996 RMK A01 T02540140  RH  049%=      5-min Rain = 0
KWA1 222144Z 10009KT 26/14 A2996 RMK A01 T02560139  RH  049%=      5-min Rain = 0
KWA1 222145Z 11010KT 26/14 A2996 RMK A01 T02560138  RH  048%=      5-min Rain = 0
KWA1 222146Z 12011KT 26/14 A2996 RMK A01 T02550138  RH  048%=      5-min Rain = 0
KWA1 222147Z 12012KT 26/14 A2996 RMK A01 T02550139  RH  049%=      5-min Rain = 0
KWA1 222148Z 12008KT 25/14 A2996 RMK A01 T02540137  RH  048%=      5-min Rain = 0
KWA1 222149Z 12007KT 25/14 A2996 RMK A01 T02530138  RH  049%=      5-min Rain = 0
KWA1 222150Z 11008KT 25/14 A2996 RMK A01 T02530139  RH  049%=      5-min Rain = 0
KWA1 222151Z 10008KT 25/14 A2996 RMK A01 T02540137  RH  049%=      5-min Rain = 0
KWA1 222152Z 11006KT 25/14 A2996 RMK A01 T02530136  RH  048%=      5-min Rain = 0
KWA1 222153Z 10009KT 25/14 A2996 RMK A01 T02530138  RH  049%=      5-min Rain = 0
KWA1 222154Z 10008KT 26/14 A2996 RMK A01 T02550136  RH  048%=      5-min Rain = 0
KWA1 222155Z 10007KT 25/14 A2996 RMK A01 T02540137  RH  048%=      5-min Rain = 0
KWA1 222156Z 13011KT 25/14 A2996 RMK A01 T02540138  RH  049%=      5-min Rain = 0
KWA1 222157Z 11010KT 25/14 A2996 RMK A01 T02540137  RH  048%=      5-min Rain = 0
KWA1 222158Z 11010KT 26/14 A2996 RMK A01 T02550137  RH  048%=      5-min Rain = 0
KWA1 222159Z 13010KT 26/14 A2995 RMK A01 T02560137  RH  048%=      5-min Rain = 0
KWA1 222200Z 10010KT 26/14 A2996 RMK A01 T02560137  RH  048%=      5-min Rain = 0
KWA1 222201Z 11011KT 26/14 A2996 RMK A01 T02570136  RH  047%=      5-min Rain = 0
KWA1 222202Z 11011KT 26/14 A2995 RMK A01 T02570138  RH  048%=      5-min Rain = 0
KWA1 222203Z 11009KT 26/14 A2995 RMK A01 T02560135  RH  047%=      5-min Rain = 0
KWA1 222204Z 12010KT 25/14 A2995 RMK A01 T02540135  RH  048%=      5-min Rain = 0
KWA1 222205Z 11009KT 25/14 A2995 RMK A01 T02540136  RH  048%=      5-min Rain = 0
KWA1 222206Z 11010KT 25/14 A2995 RMK A01 T02540136  RH  048%=      5-min Rain = 0
KWA1 222207Z 11008KT 25/14 A2995 RMK A01 T02540136  RH  048%=      5-min Rain = 0
KWA1 222208Z 11006KT 25/14 A2995 RMK A01 T02540136  RH  048%=      5-min Rain = 0
KWA1 222209Z 13006KT 25/14 A2995 RMK A01 T02530136  RH  048%=      5-min Rain = 0
KWA1 222210Z 12009KT 25/14 A2995 RMK A01 T02530136  RH  048%=      5-min Rain = 0
KWA1 222211Z 11007KT 25/14 A2995 RMK A01 T02530136  RH  048%=      5-min Rain = 0
KWA1 222212Z 09009KT 25/14 A2995 RMK A01 T02540135  RH  048%=      5-min Rain = 0
KWA1 222213Z 08008KT 26/13 A2995 RMK A01 T02550134  RH  047%=      5-min Rain = 0
KWA1 222214Z 09007KT 26/13 A2995 RMK A01 T02560134  RH  047%=      5-min Rain = 0
KWA1 222215Z 10011KT 26/14 A2994 RMK A01 T02590136  RH  047%=      5-min Rain = 0
KWA1 222216Z 11011KT 26/14 A2994 RMK A01 T02600136  RH  046%=      5-min Rain = 0
KWA1 222217Z 12010KT 26/14 A2994 RMK A01 T02590137  RH  047%=      5-min Rain = 0
KWA1 222218Z 10009KT 26/14 A2994 RMK A01 T02580136  RH  047%=      5-min Rain = 0
KWA1 222219Z 11011KT 26/13 A2994 RMK A01 T02580134  RH  047%=      5-min Rain = 0
KWA1 222220Z 10010KT 26/14 A2994 RMK A01 T02570135  RH  047%=      5-min Rain = 0
KWA1 222221Z 11010KT 26/14 A2995 RMK A01 T02570135  RH  047%=      5-min Rain = 0
KWA1 222222Z 10010KT 26/13 A2995 RMK A01 T02560134  RH  047%=      5-min Rain = 0
KWA1 222223Z 11009KT 26/13 A2995 RMK A01 T02560134  RH  047%=      5-min Rain = 0
KWA1 222224Z 11009KT 26/13 A2995 RMK A01 T02570134  RH  047%=      5-min Rain = 0
KWA1 222225Z 10010KT 26/14 A2994 RMK A01 T02570135  RH  047%=      5-min Rain = 0
KWA1 222226Z 10012KT 26/13 A2994 RMK A01 T02580134  RH  046%=      5-min Rain = 0
KWA1 222227Z 12012KT 26/14 A2994 RMK A01 T02590137  RH  047%=      5-min Rain = 0
KWA1 222228Z 13010KT 26/14 A2994 RMK A01 T02590140  RH  048%=      5-min Rain = 0
KWA1 222229Z 13010KT 26/14 A2994 RMK A01 T02590144  RH  049%=      5-min Rain = 0
KWA1 222230Z 12010KT 26/14 A2994 RMK A01 T02590142  RH  048%=      5-min Rain = 0
KWA1 222231Z 12011KT 26/14 A2994 RMK A01 T02580144  RH  049%=      5-min Rain = 0
KWA1 222232Z 11011KT 26/14 A2994 RMK A01 T02570142  RH  049%=      5-min Rain = 0
KWA1 222233Z 12010KT 26/14 A2994 RMK A01 T02560137  RH  048%=      5-min Rain = 0
KWA1 222234Z 12008KT 26/14 A2994 RMK A01 T02550139  RH  048%=      5-min Rain = 0
KWA1 222235Z 12010KT 26/14 A2994 RMK A01 T02560138  RH  048%=      5-min Rain = 0
KWA1 222236Z 11010KT 26/14 A2994 RMK A01 T02560139  RH  048%=      5-min Rain = 0
KWA1 222237Z 11008KT 26/14 A2994 RMK A01 T02560138  RH  048%=      5-min Rain = 0
KWA1 222238Z 11009KT 26/14 A2994 RMK A01 T02570137  RH  047%=      5-min Rain = 0
KWA1 222239Z 12010KT 26/14 A2994 RMK A01 T02570139  RH  048%=      5-min Rain = 0
KWA1 222240Z 12011KT 26/14 A2994 RMK A01 T02570141  RH  049%=      5-min Rain = 0
KWA1 222241Z 12009KT 26/14 A2994 RMK A01 T02570139  RH  048%=      5-min Rain = 0
KWA1 222242Z 11010KT 26/14 A2994 RMK A01 T02570139  RH  048%=      5-min Rain = 0
KWA1 222243Z 10010KT 26/14 A2994 RMK A01 T02570138  RH  048%=      5-min Rain = 0
KWA1 222244Z 11012KT 26/14 A2995 RMK A01 T02570137  RH  047%=      5-min Rain = 0
KWA1 222245Z 10012KT 26/14 A2995 RMK A01 T02570139  RH  048%=      5-min Rain = 0
KWA1 222246Z 10012KT 26/14 A2995 RMK A01 T02580140  RH  048%=      5-min Rain = 0
KWA1 222247Z 10012KT 26/14 A2995 RMK A01 T02580139  RH  048%=      5-min Rain = 0
KWA1 222248Z 10010KT 26/14 A2995 RMK A01 T02580138  RH  047%=      5-min Rain = 0
KWA1 222249Z 11009KT 26/14 A2995 RMK A01 T02590138  RH  047%=      5-min Rain = 0
KWA1 222250Z 10009KT 26/14 A2995 RMK A01 T02580138  RH  047%=      5-min Rain = 0
KWA1 222251Z 10008KT 26/14 A2995 RMK A01 T02580139  RH  048%=      5-min Rain = 0
KWA1 222252Z 09012KT 26/14 A2995 RMK A01 T02580138  RH  047%=      5-min Rain = 0
KWA1 222253Z 10010KT 26/14 A2995 RMK A01 T02580136  RH  047%=      5-min Rain = 0
KWA1 222254Z 10008KT 26/14 A2995 RMK A01 T02580139  RH  048%=      5-min Rain = 0
KWA1 222255Z 10010KT 26/14 A2995 RMK A01 T02570137  RH  047%=      5-min Rain = 0
KWA1 222256Z 09009KT 26/14 A2995 RMK A01 T02570138  RH  048%=      5-min Rain = 0
KWA1 222257Z 10011KT 26/14 A2995 RMK A01 T02580136  RH  047%=      5-min Rain = 0
KWA1 222258Z 11010KT 26/14 A2994 RMK A01 T02590137  RH  047%=      5-min Rain = 0
KWA1 222259Z 11009KT 26/14 A2994 RMK A01 T02580138  RH  047%=      5-min Rain = 0
KWA1 222300Z 11010KT 26/14 A2994 RMK A01 T02570138  RH  048%=      5-min Rain = 0
KWA1 222301Z 11010KT 26/14 A2994 RMK A01 T02560139  RH  048%=      5-min Rain = 0
KWA1 222302Z 11008KT 26/14 A2994 RMK A01 T02570138  RH  048%=      5-min Rain = 0
KWA1 222303Z 11009KT 26/14 A2994 RMK A01 T02570138  RH  048%=      5-min Rain = 0
KWA1 222304Z 11010KT 26/14 A2994 RMK A01 T02570138  RH  048%=      5-min Rain = 0
KWA1 222305Z 11009KT 26/14 A2994 RMK A01 T02580138  RH  048%=      5-min Rain = 0
KWA1 222306Z 11010KT 26/14 A2994 RMK A01 T02580139  RH  048%=      5-min Rain = 0
KWA1 222307Z 09010KT 26/14 A2994 RMK A01 T02580138  RH  048%=      5-min Rain = 0
KWA1 222308Z 09011KT 26/14 A2994 RMK A01 T02590138  RH  047%=      5-min Rain = 0
KWA1 222309Z 09012KT 26/14 A2994 RMK A01 T02590137  RH  047%=      5-min Rain = 0
KWA1 222310Z 10011KT 26/14 A2994 RMK A01 T02600138  RH  047%=      5-min Rain = 0
KWA1 222311Z 10010KT 26/14 A2994 RMK A01 T02600140  RH  048%=      5-min Rain = 0
KWA1 222312Z 10009KT 26/14 A2994 RMK A01 T02600141  RH  048%=      5-min Rain = 0
KWA1 222313Z 10009KT 26/14 A2995 RMK A01 T02600141  RH  048%=      5-min Rain = 0
KWA1 222314Z 10009KT 26/14 A2995 RMK A01 T02600141  RH  048%=      5-min Rain = 0
KWA1 222315Z 10012KT 26/14 A2995 RMK A01 T02610139  RH  047%=      5-min Rain = 0
KWA1 222316Z 10010KT 26/14 A2995 RMK A01 T02610141  RH  047%=      5-min Rain = 0
KWA1 222317Z 10010KT 26/14 A2995 RMK A01 T02610140  RH  047%=      5-min Rain = 0
KWA1 222318Z 10010KT 26/14 A2995 RMK A01 T02610142  RH  048%=      5-min Rain = 0
KWA1 222319Z 10010KT 26/14 A2995 RMK A01 T02610142  RH  048%=      5-min Rain = 0
KWA1 222320Z 11011G16KT 26/14 A2995 RMK A01 T02600142  RH  048%=      5-min Rain = 0
KWA1 222321Z 13014KT 26/14 A2995 RMK A01 T02610138  RH  047%=      5-min Rain = 0
KWA1 222322Z 14014KT 26/14 A2995 RMK A01 T02610137  RH  046%=      5-min Rain = 0
KWA1 222323Z 14013KT 26/14 A2995 RMK A01 T02610138  RH  047%=      5-min Rain = 0
KWA1 222324Z 14013KT 26/14 A2995 RMK A01 T02600139  RH  047%=      5-min Rain = 0
KWA1 222325Z 14013KT 26/14 A2995 RMK A01 T02600139  RH  047%=      5-min Rain = 0
KWA1 222326Z 14013KT 26/14 A2995 RMK A01 T02600138  RH  047%=      5-min Rain = 0
KWA1 222327Z 15011KT 26/14 A2995 RMK A01 T02600140  RH  047%=      5-min Rain = 0
KWA1 222328Z 14014KT 26/14 A2995 RMK A01 T02610139  RH  047%=      5-min Rain = 0
KWA1 222329Z 14015KT 26/14 A2995 RMK A01 T02610138  RH  047%=      5-min Rain = 0
KWA1 222330Z 14014KT 26/14 A2995 RMK A01 T02600138  RH  047%=      5-min Rain = 0
KWA1 222331Z 14013KT 26/14 A2995 RMK A01 T02600140  RH  047%=      5-min Rain = 0
KWA1 222332Z 15015KT 26/14 A2995 RMK A01 T02590137  RH  047%=      5-min Rain = 0
KWA1 222333Z 14014KT 26/14 A2995 RMK A01 T02590138  RH  047%=      5-min Rain = 0
KWA1 222334Z 14015KT 26/14 A2995 RMK A01 T02590138  RH  047%=      5-min Rain = 0
KWA1 222335Z 14015KT 26/14 A2995 RMK A01 T02580137  RH  047%=      5-min Rain = 0
KWA1 222336Z 15017KT 26/14 A2995 RMK A01 T02580136  RH  047%=      5-min Rain = 0
KWA1 222337Z 14014KT 26/14 A2995 RMK A01 T02580136  RH  047%=      5-min Rain = 0
KWA1 222338Z 14014KT 26/14 A2995 RMK A01 T02580136  RH  047%=      5-min Rain = 0
KWA1 222339Z 14013KT 26/14 A2995 RMK A01 T02580138  RH  047%=      5-min Rain = 0
KWA1 222340Z 14013KT 26/14 A2995 RMK A01 T02570138  RH  048%=      5-min Rain = 0
KWA1 222341Z 14012KT 26/14 A2995 RMK A01 T02570138  RH  048%=      5-min Rain = 0
KWA1 222342Z 14012KT 26/14 A2995 RMK A01 T02570139  RH  048%=      5-min Rain = 0
KWA1 222343Z 14013KT 26/14 A2995 RMK A01 T02580138  RH  047%=      5-min Rain = 0
KWA1 222344Z 15016KT 26/14 A2995 RMK A01 T02570138  RH  048%=      5-min Rain = 0
KWA1 222345Z 15014KT 26/14 A2995 RMK A01 T02580137  RH  047%=      5-min Rain = 0
KWA1 222346Z 15012KT 26/14 A2995 RMK A01 T02570138  RH  048%=      5-min Rain = 0
KWA1 222347Z 14012KT 26/14 A2995 RMK A01 T02570139  RH  048%=      5-min Rain = 0
KWA1 222348Z 15013KT 26/14 A2996 RMK A01 T02580138  RH  048%=      5-min Rain = 0
KWA1 222349Z 15012KT 26/14 A2996 RMK A01 T02570136  RH  047%=      5-min Rain = 0
KWA1 222350Z 14012KT 26/14 A2996 RMK A01 T02570136  RH  047%=      5-min Rain = 0
KWA1 222351Z 15013KT 26/14 A2996 RMK A01 T02570137  RH  047%=      5-min Rain = 0
KWA1 222352Z 15015KT 26/14 A2996 RMK A01 T02580138  RH  048%=      5-min Rain = 0
KWA1 222353Z 15012KT 26/14 A2996 RMK A01 T02570139  RH  048%=      5-min Rain = 0
KWA1 222354Z 15014KT 26/14 A2996 RMK A01 T02570139  RH  048%=      5-min Rain = 0
KWA1 222355Z 15014KT 26/14 A2996 RMK A01 T02570138  RH  048%=      5-min Rain = 0
KWA1 222356Z 15012KT 26/14 A2996 RMK A01 T02570138  RH  048%=      5-min Rain = 0
KWA1 222357Z 16014KT 26/14 A2996 RMK A01 T02570140  RH  048%=      5-min Rain = 0
KWA1 222358Z 16012KT 26/14 A2996 RMK A01 T02570139  RH  048%=      5-min Rain = 0
KWA1 222359Z 16013KT 26/14 A2996 RMK A01 T02570139  RH  048%=      5-min Rain = 0
KWA1 230000Z 16011KT 26/14 A2996 RMK A01 T02560140  RH  048%=      5-min Rain = 0
KWA1 230001Z 16011KT 26/14 A2996 RMK A01 T02570141  RH  049%=      5-min Rain = 0
KWA1 230002Z 16014KT 26/14 A2996 RMK A01 T02560139  RH  048%=      5-min Rain = 0
KWA1 230003Z 16015KT 26/14 A2996 RMK A01 T02560139  RH  048%=      5-min Rain = 0
KWA1 230004Z 16015KT 26/14 A2996 RMK A01 T02550138  RH  048%=      5-min Rain = 0
KWA1 230005Z 15013KT 26/14 A2996 RMK A01 T02550140  RH  049%=      5-min Rain = 0
KWA1 230006Z 15015KT 26/14 A2996 RMK A01 T02550140  RH  049%=      5-min Rain = 0
KWA1 230007Z 15014KT 26/14 A2996 RMK A01 T02550140  RH  049%=      5-min Rain = 0
KWA1 230008Z 15013KT 25/14 A2996 RMK A01 T02540140  RH  049%=      5-min Rain = 0
KWA1 230009Z 15014KT 25/14 A2996 RMK A01 T02540140  RH  049%=      5-min Rain = 0
KWA1 230010Z 15013KT 25/14 A2995 RMK A01 T02530141  RH  050%=      5-min Rain = 0
KWA1 230011Z 15013KT 25/14 A2995 RMK A01 T02530141  RH  050%=      5-min Rain = 0
KWA1 230012Z 16012KT 25/14 A2995 RMK A01 T02530141  RH  050%=      5-min Rain = 0
KWA1 230013Z 15014KT 25/14 A2995 RMK A01 T02530141  RH  050%=      5-min Rain = 0
KWA1 230014Z 15014KT 25/14 A2995 RMK A01 T02520140  RH  050%=      5-min Rain = 0
KWA1 230015Z 15014KT 25/14 A2995 RMK A01 T02520140  RH  050%=      5-min Rain = 0
KWA1 230016Z 15013KT 25/14 A2995 RMK A01 T02520141  RH  050%=      5-min Rain = 0
KWA1 230017Z 15012KT 25/14 A2995 RMK A01 T02520140  RH  050%=      5-min Rain = 0
KWA1 230018Z 14012KT 25/14 A2995 RMK A01 T02520140  RH  050%=      5-min Rain = 0
KWA1 230019Z 14012KT 25/14 A2995 RMK A01 T02520139  RH  049%=      5-min Rain = 0
KWA1 230020Z 15014KT 25/14 A2995 RMK A01 T02520139  RH  049%=      5-min Rain = 0
KWA1 230021Z 15013KT 25/14 A2995 RMK A01 T02520139  RH  050%=      5-min Rain = 0
KWA1 230022Z 15012KT 25/14 A2995 RMK A01 T02520140  RH  050%=      5-min Rain = 0
KWA1 230023Z 15013KT 25/14 A2995 RMK A01 T02510138  RH  049%=      5-min Rain = 0
KWA1 230024Z 15014KT 25/14 A2995 RMK A01 T02510136  RH  049%=      5-min Rain = 0
KWA1 230025Z 15012KT 25/14 A2995 RMK A01 T02510137  RH  049%=      5-min Rain = 0
KWA1 230026Z 15014KT 25/14 A2995 RMK A01 T02500135  RH  049%=      5-min Rain = 0
KWA1 230027Z 15013KT 25/14 A2995 RMK A01 T02500136  RH  049%=      5-min Rain = 0
KWA1 230028Z 15014KT 25/14 A2995 RMK A01 T02500137  RH  050%=      5-min Rain = 0
KWA1 230029Z 16013KT 25/14 A2995 RMK A01 T02490138  RH  050%=      5-min Rain = 0
KWA1 230030Z 15013KT 25/14 A2995 RMK A01 T02490138  RH  050%=      5-min Rain = 0
KWA1 230031Z 16013KT 25/14 A2995 RMK A01 T02490138  RH  050%=      5-min Rain = 0
KWA1 230032Z 16014KT 25/14 A2995 RMK A01 T02480139  RH  050%=      5-min Rain = 0
KWA1 230033Z 16013KT 25/14 A2995 RMK A01 T02480138  RH  050%=      5-min Rain = 0
KWA1 230034Z 16013KT 25/14 A2996 RMK A01 T02480138  RH  050%=      5-min Rain = 0
KWA1 230035Z 16012KT 25/14 A2996 RMK A01 T02480138  RH  051%=      5-min Rain = 0
KWA1 230036Z 16012KT 25/14 A2996 RMK A01 T02470139  RH  051%=      5-min Rain = 0
KWA1 230037Z 16015KT 25/14 A2996 RMK A01 T02470139  RH  051%=      5-min Rain = 0
KWA1 230038Z 16013KT 25/14 A2996 RMK A01 T02470139  RH  051%=      5-min Rain = 0
KWA1 230039Z 16014KT 25/14 A2996 RMK A01 T02460139  RH  051%=      5-min Rain = 0
KWA1 230040Z 16012KT 25/14 A2996 RMK A01 T02460139  RH  052%=      5-min Rain = 0
KWA1 230041Z 16012KT 25/14 A2996 RMK A01 T02450139  RH  052%=      5-min Rain = 0
KWA1 230042Z 16013KT 25/14 A2996 RMK A01 T02450139  RH  052%=      5-min Rain = 0
KWA1 230043Z 16013KT 25/14 A2996 RMK A01 T02450139  RH  052%=      5-min Rain = 0
KWA1 230044Z 16014KT 24/14 A2996 RMK A01 T02440139  RH  052%=      5-min Rain = 0
KWA1 230045Z 16013KT 24/14 A2996 RMK A01 T02440139  RH  052%=      5-min Rain = 0
KWA1 230046Z 16013KT 24/14 A2996 RMK A01 T02430139  RH  052%=      5-min Rain = 0
KWA1 230047Z 16012KT 24/14 A2996 RMK A01 T02430139  RH  052%=      5-min Rain = 0
KWA1 230048Z 16012KT 24/14 A2996 RMK A01 T02420140  RH  053%=      5-min Rain = 0
KWA1 230049Z 16011KT 24/14 A2996 RMK A01 T02420139  RH  053%=      5-min Rain = 0
KWA1 230050Z 16015KT 24/14 A2996 RMK A01 T02420139  RH  053%=      5-min Rain = 0
KWA1 230051Z 17014KT 24/14 A2996 RMK A01 T02420138  RH  052%=      5-min Rain = 0
KWA1 230052Z 16013KT 24/14 A2996 RMK A01 T02420139  RH  052%=      5-min Rain = 0
KWA1 230053Z 16015KT 24/14 A2996 RMK A01 T02420138  RH  052%=      5-min Rain = 0
KWA1 230054Z 16014KT 24/14 A2996 RMK A01 T02420138  RH  052%=      5-min Rain = 0
KWA1 230055Z 16015KT 24/14 A2996 RMK A01 T02410138  RH  052%=      5-min Rain = 0
KWA1 230056Z 16013KT 24/14 A2996 RMK A01 T02410139  RH  053%=      5-min Rain = 0
KWA1 230057Z 16013KT 24/14 A2996 RMK A01 T02400138  RH  053%=      5-min Rain = 0
KWA1 230058Z 16013KT 24/14 A2996 RMK A01 T02400138  RH  053%=      5-min Rain = 0
KWA1 230059Z 16011KT 24/14 A2996 RMK A01 T02390139  RH  053%=      5-min Rain = 0
KWA1 230100Z 16013KT 24/14 A2996 RMK A01 T02390139  RH  053%=      5-min Rain = 0
KWA1 230101Z 16014KT 24/14 A2996 RMK A01 T02390138  RH  053%=      5-min Rain = 0
KWA1 230102Z 16013KT 24/14 A2996 RMK A01 T02390139  RH  053%=      5-min Rain = 0
KWA1 230103Z 16013KT 24/14 A2996 RMK A01 T02380138  RH  053%=      5-min Rain = 0
KWA1 230104Z 16012KT 24/14 A2996 RMK A01 T02380138  RH  053%=      5-min Rain = 0
KWA1 230105Z 16013KT 24/14 A2996 RMK A01 T02370138  RH  054%=      5-min Rain = 0
KWA1 230106Z 16013KT 24/14 A2996 RMK A01 T02370137  RH  053%=      5-min Rain = 0
KWA1 230107Z 16013KT 24/14 A2996 RMK A01 T02370137  RH  053%=      5-min Rain = 0
KWA1 230108Z 16014KT 24/14 A2996 RMK A01 T02370137  RH  054%=      5-min Rain = 0
KWA1 230109Z 16013KT 24/14 A2996 RMK A01 T02360137  RH  054%=      5-min Rain = 0
KWA1 230110Z 16012KT 24/14 A2996 RMK A01 T02360137  RH  054%=      5-min Rain = 0
KWA1 230111Z 16012KT 24/14 A2996 RMK A01 T02360137  RH  054%=      5-min Rain = 0
KWA1 230112Z 16012KT 24/14 A2996 RMK A01 T02360137  RH  054%=      5-min Rain = 0
KWA1 230113Z 16012KT 24/14 A2996 RMK A01 T02360138  RH  054%=      5-min Rain = 0
KWA1 230114Z 16011KT 24/14 A2996 RMK A01 T02350137  RH  054%=      5-min Rain = 0
KWA1 230115Z 16013KT 23/14 A2996 RMK A01 T02340137  RH  054%=      5-min Rain = 0
KWA1 230116Z 16013KT 23/14 A2996 RMK A01 T02330137  RH  054%=      5-min Rain = 0
KWA1 230117Z 16012KT 23/14 A2997 RMK A01 T02340137  RH  055%=      5-min Rain = 0
KWA1 230118Z 16012KT 23/14 A2997 RMK A01 T02340138  RH  055%=      5-min Rain = 0
KWA1 230119Z 16012KT 23/14 A2997 RMK A01 T02340137  RH  055%=      5-min Rain = 0
KWA1 230120Z 16011KT 23/14 A2997 RMK A01 T02330138  RH  055%=      5-min Rain = 0
KWA1 230121Z 16013KT 23/14 A2997 RMK A01 T02330138  RH  055%=      5-min Rain = 0
KWA1 230122Z 16010KT 23/14 A2997 RMK A01 T02320138  RH  055%=      5-min Rain = 0
KWA1 230123Z 16012KT 23/14 A2997 RMK A01 T02320138  RH  055%=      5-min Rain = 0
KWA1 230124Z 16011KT 23/14 A2997 RMK A01 T02330138  RH  055%=      5-min Rain = 0
KWA1 230125Z 16011KT 23/14 A2997 RMK A01 T02330139  RH  055%=      5-min Rain = 0
KWA1 230126Z 16013KT 23/14 A2997 RMK A01 T02330139  RH  056%=      5-min Rain = 0
KWA1 230127Z 16012KT 23/14 A2997 RMK A01 T02320139  RH  056%=      5-min Rain = 0
KWA1 230128Z 16011KT 23/14 A2997 RMK A01 T02320140  RH  056%=      5-min Rain = 0
KWA1 230129Z 16013KT 23/14 A2997 RMK A01 T02310139  RH  056%=      5-min Rain = 0
KWA1 230130Z 16013KT 23/14 A2997 RMK A01 T02310139  RH  056%=      5-min Rain = 0
KWA1 230131Z 16013KT 23/14 A2997 RMK A01 T02310139  RH  056%=      5-min Rain = 0
KWA1 230132Z 16013KT 23/14 A2997 RMK A01 T02320140  RH  056%=      5-min Rain = 0
KWA1 230133Z 16012KT 23/14 A2997 RMK A01 T02320140  RH  056%=      5-min Rain = 0
KWA1 230134Z 16013KT 23/14 A2997 RMK A01 T02320140  RH  056%=      5-min Rain = 0
KWA1 230135Z 16012KT 23/14 A2997 RMK A01 T02310140  RH  056%=      5-min Rain = 0
KWA1 230136Z 16013KT 23/14 A2997 RMK A01 T02310140  RH  057%=      5-min Rain = 0
KWA1 230137Z 16013KT 23/14 A2997 RMK A01 T02300140  RH  057%=      5-min Rain = 0
KWA1 230138Z 16013KT 23/14 A2997 RMK A01 T02300140  RH  057%=      5-min Rain = 0
KWA1 230139Z 15012KT 23/14 A2996 RMK A01 T02300140  RH  057%=      5-min Rain = 0
KWA1 230140Z 15012KT 23/14 A2996 RMK A01 T02300140  RH  057%=      5-min Rain = 0
KWA1 230141Z 16012KT 23/14 A2996 RMK A01 T02300140  RH  057%=      5-min Rain = 0
KWA1 230142Z 15012KT 23/14 A2996 RMK A01 T02300140  RH  057%=      5-min Rain = 0
KWA1 230143Z 16014KT 23/14 A2996 RMK A01 T02290140  RH  057%=      5-min Rain = 0
KWA1 230144Z 16013KT 23/14 A2996 RMK A01 T02290140  RH  057%=      5-min Rain = 0
KWA1 230145Z 16012KT 23/14 A2996 RMK A01 T02290140  RH  057%=      5-min Rain = 0
KWA1 230146Z 16013KT 23/14 A2996 RMK A01 T02290140  RH  057%=      5-min Rain = 0
KWA1 230147Z 15012KT 23/14 A2996 RMK A01 T02290140  RH  057%=      5-min Rain = 0
KWA1 230148Z 15014KT 23/14 A2996 RMK A01 T02280140  RH  057%=      5-min Rain = 0
KWA1 230149Z 15013KT 23/14 A2996 RMK A01 T02290140  RH  057%=      5-min Rain = 0
KWA1 230150Z 15015KT 23/14 A2996 RMK A01 T02290140  RH  057%=      5-min Rain = 0
KWA1 230151Z 16013KT 23/14 A2996 RMK A01 T02290140  RH  057%=      5-min Rain = 0
KWA1 230152Z 16013KT 23/14 A2996 RMK A01 T02290140  RH  057%=      5-min Rain = 0
KWA1 230153Z 16014KT 23/14 A2996 RMK A01 T02290140  RH  057%=      5-min Rain = 0
KWA1 230154Z 16014KT 23/14 A2996 RMK A01 T02280140  RH  057%=      5-min Rain = 0
KWA1 230155Z 15014KT 23/14 A2996 RMK A01 T02280140  RH  057%=      5-min Rain = 0
KWA1 230156Z 15014KT 23/14 A2996 RMK A01 T02280140  RH  057%=      5-min Rain = 0
KWA1 230157Z 15014KT 23/14 A2996 RMK A01 T02280140  RH  058%=      5-min Rain = 0
KWA1 230158Z 15014KT 23/14 A2996 RMK A01 T02280140  RH  058%=      5-min Rain = 0
KWA1 230159Z 15014KT 23/14 A2996 RMK A01 T02280141  RH  058%=      5-min Rain = 0
KWA1 230200Z 15014KT 23/14 A2996 RMK A01 T02280140  RH  058%=      5-min Rain = 0
KWA1 230201Z 15014KT 23/14 A2996 RMK A01 T02280140  RH  058%=      5-min Rain = 0
KWA1 230202Z 15015KT 23/14 A2996 RMK A01 T02270140  RH  058%=      5-min Rain = 0
KWA1 230203Z 15015KT 23/14 A2996 RMK A01 T02270140  RH  058%=      5-min Rain = 0
KWA1 230204Z 15015KT 23/14 A2995 RMK A01 T02270140  RH  058%=      5-min Rain = 0
KWA1 230205Z 15015KT 23/14 A2995 RMK A01 T02270140  RH  058%=      5-min Rain = 0
KWA1 230206Z 15014KT 23/14 A2995 RMK A01 T02270140  RH  058%=      5-min Rain = 0
KWA1 230207Z 15015KT 23/14 A2995 RMK A01 T02270140  RH  058%=      5-min Rain = 0
KWA1 230208Z 15015KT 23/14 A2996 RMK A01 T02270140  RH  058%=      5-min Rain = 0
KWA1 230209Z 15015KT 23/14 A2996 RMK A01 T02270140  RH  058%=      5-min Rain = 0
KWA1 230210Z 15014KT 23/14 A2996 RMK A01 T02270141  RH  058%=      5-min Rain = 0
KWA1 230211Z 15014KT 23/14 A2996 RMK A01 T02270141  RH  058%=      5-min Rain = 0
KWA1 230212Z 15014KT 23/14 A2996 RMK A01 T02270141  RH  058%=      5-min Rain = 0
KWA1 230213Z 15013KT 23/14 A2996 RMK A01 T02270141  RH  058%=      5-min Rain = 0
KWA1 230214Z 15013KT 23/14 A2996 RMK A01 T02260141  RH  059%=      5-min Rain = 0
KWA1 230215Z 15012KT 23/14 A2996 RMK A01 T02260141  RH  059%=      5-min Rain = 0
KWA1 230216Z 15013KT 23/14 A2996 RMK A01 T02260141  RH  059%=      5-min Rain = 0
KWA1 230217Z 15013KT 23/14 A2996 RMK A01 T02250141  RH  059%=      5-min Rain = 0
KWA1 230218Z 15012KT 23/14 A2996 RMK A01 T02250141  RH  059%=      5-min Rain = 0
KWA1 230219Z 15012KT 23/14 A2996 RMK A01 T02250141  RH  059%=      5-min Rain = 0
KWA1 230220Z 15012KT 23/14 A2996 RMK A01 T02250141  RH  059%=      5-min Rain = 0
KWA1 230221Z 15014KT 23/14 A2996 RMK A01 T02250141  RH  059%=      5-min Rain = 0
KWA1 230222Z 15012KT 23/14 A2996 RMK A01 T02250141  RH  059%=      5-min Rain = 0
KWA1 230223Z 14012KT 23/14 A2996 RMK A01 T02260141  RH  059%=      5-min Rain = 0
KWA1 230224Z 14013KT 23/14 A2996 RMK A01 T02250141  RH  059%=      5-min Rain = 0
KWA1 230225Z 14012KT 23/14 A2995 RMK A01 T02260141  RH  059%=      5-min Rain = 0
KWA1 230226Z 14011KT 23/14 A2996 RMK A01 T02250141  RH  059%=      5-min Rain = 0
KWA1 230227Z 14013KT 23/14 A2996 RMK A01 T02260142  RH  059%=      5-min Rain = 0
KWA1 230228Z 14012KT 23/14 A2996 RMK A01 T02250141  RH  059%=      5-min Rain = 0
KWA1 230229Z 14012KT 23/14 A2996 RMK A01 T02250141  RH  059%=      5-min Rain = 0
KWA1 230230Z 15012KT 23/14 A2996 RMK A01 T02250141  RH  059%=      5-min Rain = 0
KWA1 230231Z 15012KT 22/14 A2996 RMK A01 T02240141  RH  059%=      5-min Rain = 0
KWA1 230232Z 15012KT 22/14 A2996 RMK A01 T02240141  RH  059%=      5-min Rain = 0
KWA1 230233Z 15013KT 22/14 A2996 RMK A01 T02240141  RH  059%=      5-min Rain = 0
KWA1 230234Z 15015KT 22/14 A2996 RMK A01 T02240142  RH  060%=      5-min Rain = 0
KWA1 230235Z 15013KT 22/14 A2996 RMK A01 T02240142  RH  060%=      5-min Rain = 0
KWA1 230236Z 15013KT 22/14 A2996 RMK A01 T02240142  RH  060%=      5-min Rain = 0
KWA1 230237Z 15012KT 22/14 A2996 RMK A01 T02230141  RH  060%=      5-min Rain = 0
KWA1 230238Z 15010KT 22/14 A2997 RMK A01 T02230142  RH  060%=      5-min Rain = 0
KWA1 230239Z 15010KT 22/14 A2997 RMK A01 T02230142  RH  060%=      5-min Rain = 0
KWA1 230240Z 15009KT 22/14 A2997 RMK A01 T02220141  RH  060%=      5-min Rain = 0
KWA1 230241Z 15009KT 22/14 A2997 RMK A01 T02220141  RH  060%=      5-min Rain = 0
KWA1 230242Z 15009KT 22/14 A2997 RMK A01 T02220141  RH  060%=      5-min Rain = 0
KWA1 230243Z 15010KT 22/14 A2997 RMK A01 T02220142  RH  060%=      5-min Rain = 0
KWA1 230244Z 15009KT 22/14 A2997 RMK A01 T02220142  RH  061%=      5-min Rain = 0
KWA1 230245Z 16011KT 22/14 A2997 RMK A01 T02210142  RH  061%=      5-min Rain = 0
KWA1 230246Z 16011KT 22/14 A2997 RMK A01 T02210141  RH  061%=      5-min Rain = 0
KWA1 230247Z 16010KT 22/14 A2997 RMK A01 T02210141  RH  061%=      5-min Rain = 0
KWA1 230248Z 15012KT 22/14 A2997 RMK A01 T02220142  RH  061%=      5-min Rain = 0
KWA1 230249Z 16011KT 22/14 A2997 RMK A01 T02210142  RH  061%=      5-min Rain = 0
KWA1 230250Z 15010KT 22/14 A2997 RMK A01 T02210142  RH  061%=      5-min Rain = 0
KWA1 230251Z 15011KT 22/14 A2997 RMK A01 T02210142  RH  061%=      5-min Rain = 0
KWA1 230252Z 15011KT 22/14 A2996 RMK A01 T02210142  RH  061%=      5-min Rain = 0
KWA1 230253Z 15011KT 22/14 A2996 RMK A01 T02210142  RH  061%=      5-min Rain = 0
KWA1 230254Z 15011KT 22/14 A2996 RMK A01 T02210142  RH  061%=      5-min Rain = 0
KWA1 230255Z 15011KT 22/14 A2996 RMK A01 T02210142  RH  061%=      5-min Rain = 0
KWA1 230256Z 15010KT 22/14 A2996 RMK A01 T02210142  RH  061%=      5-min Rain = 0
KWA1 230257Z 15010KT 22/14 A2996 RMK A01 T02200142  RH  061%=      5-min Rain = 0
KWA1 230258Z 15010KT 22/14 A2996 RMK A01 T02200142  RH  061%=      5-min Rain = 0
KWA1 230259Z 15009KT 22/14 A2996 RMK A01 T02200142  RH  061%=      5-min Rain = 0
KWA1 230300Z 16011KT 22/14 A2996 RMK A01 T02200142  RH  061%=      5-min Rain = 0
KWA1 230301Z 15009KT 22/14 A2996 RMK A01 T02200141  RH  061%=      5-min Rain = 0
KWA1 230302Z 15010KT 22/14 A2996 RMK A01 T02200142  RH  061%=      5-min Rain = 0
KWA1 230303Z 16009KT 22/14 A2997 RMK A01 T02200141  RH  061%=      5-min Rain = 0
KWA1 230304Z 16008KT 22/14 A2997 RMK A01 T02200141  RH  061%=      5-min Rain = 0
KWA1 230305Z 16009KT 22/14 A2997 RMK A01 T02190141  RH  061%=      5-min Rain = 0
KWA1 230306Z 16008KT 22/14 A2997 RMK A01 T02190141  RH  061%=      5-min Rain = 0
KWA1 230307Z 16008KT 22/14 A2997 RMK A01 T02190142  RH  061%=      5-min Rain = 0
KWA1 230308Z 17010KT 22/14 A2997 RMK A01 T02190142  RH  061%=      5-min Rain = 0
KWA1 230309Z 17008KT 22/14 A2998 RMK A01 T02190141  RH  061%=      5-min Rain = 0
KWA1 230310Z 17008KT 22/14 A2998 RMK A01 T02190141  RH  061%=      5-min Rain = 0
KWA1 230311Z 18009KT 22/14 A2998 RMK A01 T02190141  RH  061%=      5-min Rain = 0
KWA1 230312Z 17009KT 22/14 A2998 RMK A01 T02200141  RH  061%=      5-min Rain = 0
KWA1 230313Z 18009KT 22/14 A2998 RMK A01 T02200141  RH  061%=      5-min Rain = 0
KWA1 230314Z 17008KT 22/14 A2998 RMK A01 T02210141  RH  061%=      5-min Rain = 0
KWA1 230315Z 17008KT 22/14 A2998 RMK A01 T02200141  RH  061%=      5-min Rain = 0
KWA1 230316Z 16010KT 22/14 A2998 RMK A01 T02190141  RH  061%=      5-min Rain = 0
KWA1 230317Z 16008KT 22/14 A2997 RMK A01 T02190142  RH  061%=      5-min Rain = 0
KWA1 230318Z 15007KT 22/14 A2997 RMK A01 T02190142  RH  061%=      5-min Rain = 0
KWA1 230319Z 16006KT 22/14 A2997 RMK A01 T02190141  RH  062%=      5-min Rain = 0
KWA1 230320Z 16007KT 22/14 A2997 RMK A01 T02180141  RH  061%=      5-min Rain = 0
KWA1 230321Z 16006KT 22/14 A2998 RMK A01 T02190142  RH  062%=      5-min Rain = 0
KWA1 230322Z 19005KT 22/14 A2998 RMK A01 T02180142  RH  062%=      5-min Rain = 0
KWA1 230323Z 20005KT 22/14 A2998 RMK A01 T02180140  RH  061%=      5-min Rain = 0
KWA1 230324Z 21004KT 22/14 A2999 RMK A01 T02190139  RH  061%=      5-min Rain = 0
KWA1 230325Z 22004KT 22/14 A2999 RMK A01 T02200139  RH  060%=      5-min Rain = 0
KWA1 230326Z 21006KT 22/14 A2999 RMK A01 T02200139  RH  060%=      5-min Rain = 0
KWA1 230327Z 21006KT 22/14 A2999 RMK A01 T02200139  RH  060%=      5-min Rain = 0
KWA1 230328Z 21005KT 22/14 A2999 RMK A01 T02200139  RH  060%=      5-min Rain = 0
KWA1 230329Z 21006KT 22/14 A2999 RMK A01 T02200139  RH  060%=      5-min Rain = 0
KWA1 230330Z 21006KT 22/14 A2999 RMK A01 T02200139  RH  060%=      5-min Rain = 0
KWA1 230331Z 21006KT 22/14 A2999 RMK A01 T02200139  RH  060%=      5-min Rain = 0
KWA1 230332Z 20006KT 22/14 A2999 RMK A01 T02200139  RH  060%=      5-min Rain = 0
KWA1 230333Z 22005KT 22/14 A2999 RMK A01 T02200139  RH  060%=      5-min Rain = 0
KWA1 230334Z 22006KT 22/14 A2999 RMK A01 T02200138  RH  060%=      5-min Rain = 0
KWA1 230335Z 22006KT 22/14 A2999 RMK A01 T02200138  RH  060%=      5-min Rain = 0
KWA1 230336Z 22006KT 22/14 A2999 RMK A01 T02200138  RH  060%=      5-min Rain = 0
KWA1 230337Z 22006KT 22/14 A2999 RMK A01 T02190139  RH  060%=      5-min Rain = 0
KWA1 230338Z 22006KT 22/14 A2999 RMK A01 T02190138  RH  060%=      5-min Rain = 0
KWA1 230339Z 21006KT 22/14 A2999 RMK A01 T02190139  RH  060%=      5-min Rain = 0
KWA1 230340Z 21006KT 22/14 A2999 RMK A01 T02180138  RH  061%=      5-min Rain = 0
KWA1 230341Z 21006KT 22/14 A2999 RMK A01 T02180138  RH  061%=      5-min Rain = 0
KWA1 230342Z 21006KT 22/14 A2999 RMK A01 T02180138  RH  061%=      5-min Rain = 0
KWA1 230343Z 21007KT 22/14 A2999 RMK A01 T02180139  RH  061%=      5-min Rain = 0
KWA1 230344Z 21007KT 22/14 A30 RMK A01 T02180139  RH  061%=      5-min Rain = 0
KWA1 230345Z 21008KT 22/14 A30 RMK A01 T02180139  RH  061%=      5-min Rain = 0
KWA1 230346Z 21007KT 22/14 A30 RMK A01 T02180139  RH  061%=      5-min Rain = 0
KWA1 230347Z 21007KT 22/14 A30 RMK A01 T02180139  RH  061%=      5-min Rain = 0
KWA1 230348Z 22007KT 22/14 A30 RMK A01 T02180139  RH  061%=      5-min Rain = 0
KWA1 230349Z 22007KT 22/14 A30 RMK A01 T02190139  RH  061%=      5-min Rain = 0
KWA1 230350Z 21007KT 22/14 A30 RMK A01 T02190139  RH  061%=      5-min Rain = 0
KWA1 230351Z 22006KT 22/14 A30 RMK A01 T02190139  RH  060%=      5-min Rain = 0
KWA1 230352Z 22006KT 22/14 A30 RMK A01 T02190139  RH  061%=      5-min Rain = 0
KWA1 230353Z 22006KT 22/14 A30 RMK A01 T02180139  RH  061%=      5-min Rain = 0
KWA1 230354Z 21008KT 22/14 A30 RMK A01 T02180140  RH  061%=      5-min Rain = 0
KWA1 230355Z 20006KT 22/14 A30 RMK A01 T02190140  RH  061%=      5-min Rain = 0
KWA1 230356Z 21007KT 22/14 A30 RMK A01 T02200140  RH  060%=      5-min Rain = 0
KWA1 230357Z 20008KT 22/14 A30 RMK A01 T02200140  RH  060%=      5-min Rain = 0
KWA1 230358Z 20007KT 22/14 A30 RMK A01 T02200140  RH  060%=      5-min Rain = 0
KWA1 230359Z 21007KT 22/14 A30 RMK A01 T02200140  RH  060%=      5-min Rain = 0
KWA1 230400Z 21007KT 22/14 A30 RMK A01 T02200140  RH  061%=      5-min Rain = 0
KWA1 230401Z 21008KT 22/14 A30 RMK A01 T02200140  RH  061%=      5-min Rain = 0
KWA1 230402Z 20007KT 22/14 A30 RMK A01 T02200140  RH  061%=      5-min Rain = 0
KWA1 230403Z 20006KT 22/14 A30 RMK A01 T02200140  RH  060%=      5-min Rain = 0
KWA1 230404Z 20005KT 22/14 A30 RMK A01 T02190139  RH  060%=      5-min Rain = 0
KWA1 230405Z 20005KT 22/14 A30 RMK A01 T02180139  RH  060%=      5-min Rain = 0
KWA1 230406Z 20005KT 22/14 A30 RMK A01 T02180139  RH  061%=      5-min Rain = 0
KWA1 230407Z 20006KT 22/14 A30 RMK A01 T02170138  RH  061%=      5-min Rain = 0
KWA1 230408Z 21005KT 22/14 A30 RMK A01 T02170139  RH  061%=      5-min Rain = 0
KWA1 230409Z 21006KT 22/14 A30 RMK A01 T02170138  RH  061%=      5-min Rain = 0
KWA1 230410Z 21006KT 22/14 A30 RMK A01 T02160138  RH  061%=      5-min Rain = 0
KWA1 230411Z 21006KT 22/14 A30 RMK A01 T02160138  RH  061%=      5-min Rain = 0
KWA1 230412Z 21005KT 22/14 A30 RMK A01 T02160139  RH  061%=      5-min Rain = 0
KWA1 230413Z 21005KT 22/14 A30 RMK A01 T02160139  RH  061%=      5-min Rain = 0
KWA1 230414Z 21005KT 22/14 A30 RMK A01 T02150138  RH  062%=      5-min Rain = 0
KWA1 230415Z 21005KT 22/14 A30 RMK A01 T02150138  RH  062%=      5-min Rain = 0
KWA1 230416Z 21005KT 22/14 A30 RMK A01 T02150138  RH  062%=      5-min Rain = 0
KWA1 230417Z 20005KT 21/14 A30 RMK A01 T02140138  RH  062%=      5-min Rain = 0
KWA1 230418Z 20005KT 21/14 A30 RMK A01 T02140138  RH  062%=      5-min Rain = 0
KWA1 230419Z 19005KT 21/14 A2999 RMK A01 T02140138  RH  062%=      5-min Rain = 0
KWA1 230420Z 18005KT 21/14 A2999 RMK A01 T02130138  RH  062%=      5-min Rain = 0
KWA1 230421Z 19007KT 21/14 A2999 RMK A01 T02120140  RH  063%=      5-min Rain = 0
KWA1 230422Z 19007KT 21/14 A30 RMK A01 T02120139  RH  063%=      5-min Rain = 0
KWA1 230423Z 19006KT 21/14 A30 RMK A01 T02120140  RH  063%=      5-min Rain = 0
KWA1 230424Z 19007KT 21/14 A30 RMK A01 T02130139  RH  063%=      5-min Rain = 0
KWA1 230425Z 19007KT 21/14 A30 RMK A01 T02120139  RH  063%=      5-min Rain = 0
KWA1 230426Z 19007KT 21/14 A30 RMK A01 T02130140  RH  063%=      5-min Rain = 0
KWA1 230427Z 19007KT 21/14 A30 RMK A01 T02120140  RH  063%=      5-min Rain = 0
KWA1 230428Z 19006KT 21/14 A30 RMK A01 T02120140  RH  063%=      5-min Rain = 0
KWA1 230429Z 19007KT 21/14 A2999 RMK A01 T02120140  RH  063%=      5-min Rain = 0
KWA1 230430Z 18006KT 21/14 A2999 RMK A01 T02120140  RH  063%=      5-min Rain = 0
KWA1 230431Z 19006KT 21/14 A2999 RMK A01 T02120140  RH  064%=      5-min Rain = 0
KWA1 230432Z 18006KT 21/14 A2999 RMK A01 T02110140  RH  064%=      5-min Rain = 0
KWA1 230433Z 19006KT 21/14 A30 RMK A01 T02100141  RH  065%=      5-min Rain = 0
KWA1 230434Z 18005KT 21/14 A2999 RMK A01 T02090140  RH  065%=      5-min Rain = 0
KWA1 230435Z 18005KT 21/14 A2999 RMK A01 T02090140  RH  065%=      5-min Rain = 0
KWA1 230436Z 18006KT 21/14 A2999 RMK A01 T02090141  RH  065%=      5-min Rain = 0
KWA1 230437Z 18006KT 21/14 A2999 RMK A01 T02080141  RH  065%=      5-min Rain = 0
KWA1 230438Z 18006KT 21/14 A2999 RMK A01 T02080141  RH  065%=      5-min Rain = 0
KWA1 230439Z 17006KT 21/14 A2999 RMK A01 T02080141  RH  065%=      5-min Rain = 0
KWA1 230440Z 16006KT 21/14 A2999 RMK A01 T02070141  RH  066%=      5-min Rain = 0
KWA1 230441Z 17006KT 21/14 A2999 RMK A01 T02060141  RH  066%=      5-min Rain = 0
KWA1 230442Z 17006KT 21/14 A2999 RMK A01 T02060140  RH  066%=      5-min Rain = 0
KWA1 230443Z 17006KT 21/14 A2999 RMK A01 T02060141  RH  066%=      5-min Rain = 0
KWA1 230444Z 16006KT 21/14 A2999 RMK A01 T02060141  RH  066%=      5-min Rain = 0
KWA1 230445Z 16006KT 21/14 A2998 RMK A01 T02050141  RH  067%=      5-min Rain = 0
KWA1 230446Z 16006KT 21/14 A2998 RMK A01 T02050141  RH  067%=      5-min Rain = 0
KWA1 230447Z 16007KT 21/14 A2998 RMK A01 T02050141  RH  067%=      5-min Rain = 0
KWA1 230448Z 16006KT 21/14 A2999 RMK A01 T02050141  RH  067%=      5-min Rain = 0
KWA1 230449Z 16007KT 21/14 A2999 RMK A01 T02050141  RH  067%=      5-min Rain = 0
KWA1 230450Z 15007KT 21/14 A2999 RMK A01 T02050141  RH  067%=      5-min Rain = 0
KWA1 230451Z 16007KT 20/14 A2999 RMK A01 T02040141  RH  067%=      5-min Rain = 0
KWA1 230452Z 15008KT 20/14 A2999 RMK A01 T02040140  RH  067%=      5-min Rain = 0
KWA1 230453Z 15008KT 20/14 A2999 RMK A01 T02040141  RH  067%=      5-min Rain = 0
KWA1 230454Z 15009KT 20/14 A2999 RMK A01 T02030140  RH  067%=      5-min Rain = 0
KWA1 230455Z 14009KT 20/14 A2999 RMK A01 T02030140  RH  067%=      5-min Rain = 0
KWA1 230456Z 15009KT 20/14 A2998 RMK A01 T02020140  RH  067%=      5-min Rain = 0
KWA1 230457Z 15010KT 20/14 A2998 RMK A01 T02030141  RH  067%=      5-min Rain = 0
KWA1 230458Z 15009KT 20/14 A2998 RMK A01 T02030141  RH  067%=      5-min Rain = 0
KWA1 230459Z 14010KT 20/14 A2998 RMK A01 T02030141  RH  067%=      5-min Rain = 0

Page generated in 0.1221 seconds.